M I D A S
Marine Information and Data Acquisition System
Tripno 1231 of the Zeeleeuw from 2007-03-14 09:39:51 to 2007-03-14 15:19:52
Back to CruiseResearch ActivitiesStationsMapUnderway DataData graphs

EquipmentUnitsComment
TimeDGPSUTC
LatitudeDGPSDM.mWGS84
LongitudeDGPSDM.mWGS84
TemperatureSBE03/SBE38deg celciusITS90
ConductivitySBE21S/mITS90
SalinitySBE21 Practical Salinity Units
ChlorophylAChelsea fluorimeterg/lCalibrated in Aceton
Missing or incorrect values are displayed as -999
Sea surface data collected by the RV Zeeleeuw from 2007-03-14 07:26:35 to 2007-03-14 15:30:33
                                                                                    Next 1000 lines
Time Latitude Longitude Temperature Conductivity Salinity ChlorophylA
2007-03-14 07:26:45 51°13.597 2°56.094 16.1874 4.074549 31.363745 -2.871232
2007-03-14 07:26:50 51°13.597 2°56.094 16.2089 4.074549 31.363745 -2.871232
2007-03-14 07:26:55 51°13.597 2°56.094 16.1289 4.074445 31.36355 -2.871232
2007-03-14 07:27:00 51°13.597 2°56.094 16.1534 4.074445 31.36355 -2.871232
2007-03-14 07:27:05 51°13.597 2°56.094 16.1809 4.074445 31.364245 -2.871232
2007-03-14 07:27:10 51°13.597 2°56.094 16.189 4.074341 31.363355 -2.871232
2007-03-14 07:27:15 51°13.597 2°56.094 16.181 4.074237 31.36316 -2.871232
2007-03-14 07:27:20 51°13.597 2°56.094 16.211 4.074237 31.36316 -2.871232
2007-03-14 07:27:25 51°13.597 2°56.094 16.2482 4.074237 31.36316 -2.871232
2007-03-14 07:27:30 51°13.597 2°56.094 16.2158 4.074238 31.363855 -2.871232
2007-03-14 07:27:35 51°13.597 2°56.094 16.2311 4.074134 31.362965 -2.871232
2007-03-14 07:27:40 51°13.597 2°56.094 16.2307 4.074134 31.36366 -2.871232
2007-03-14 07:27:45 51°13.597 2°56.094 16.234 4.07403 31.362771 -2.871232
2007-03-14 07:27:50 51°13.597 2°56.094 16.2252 4.07403 31.363466 -2.871232
2007-03-14 07:27:55 51°13.597 2°56.094 16.2297 4.07403 31.363466 -2.871232
2007-03-14 07:28:00 51°13.597 2°56.094 16.2259 4.073926 31.363271 -2.871232
2007-03-14 07:28:05 51°13.597 2°56.094 16.2258 4.073926 31.363271 -2.871232
2007-03-14 07:28:10 51°13.597 2°56.094 16.2265 4.073926 31.363966 -2.871232
2007-03-14 07:28:15 51°13.597 2°56.094 16.225 4.073823 31.363076 -2.871232
2007-03-14 07:28:20 51°13.597 2°56.094 16.2243 4.073823 31.363076 -2.871232
2007-03-14 07:28:25 51°13.597 2°56.094 16.223 4.073823 31.363771 -2.871232
2007-03-14 07:28:30 51°13.597 2°56.094 16.2222 4.073719 31.362881 -2.871232
2007-03-14 07:28:35 51°13.597 2°56.094 16.2191 4.073719 31.363576 -2.871232
2007-03-14 07:28:40 51°13.597 2°56.094 16.2109 4.073615 31.363381 -2.871232
2007-03-14 07:28:45 51°13.598 2°56.094 16.2133 4.073615 31.363381 -2.871232
2007-03-14 07:28:50 51°13.598 2°56.094 16.2065 4.073615 31.363381 -2.871232
2007-03-14 07:28:55 51°13.598 2°56.094 16.2112 4.073512 31.363186 -2.871232
2007-03-14 07:29:00 51°13.598 2°56.094 16.193 4.073512 31.363186 -2.871232
2007-03-14 07:29:05 51°13.598 2°56.094 16.1986 4.073512 31.363881 -2.871232
2007-03-14 07:29:10 51°13.598 2°56.094 16.1939 4.073408 31.362991 -2.871232
2007-03-14 07:29:15 51°13.598 2°56.094 16.1782 4.073408 31.363686 -2.871232
2007-03-14 07:29:20 51°13.598 2°56.094 16.1979 4.073408 31.363686 -2.871232
2007-03-14 07:29:25 51°13.598 2°56.094 16.1804 4.073304 31.362796 -2.871232
2007-03-14 07:29:30 51°13.598 2°56.094 16.1923 4.073304 31.363491 -2.871232
2007-03-14 07:29:35 51°13.598 2°56.094 16.1931 4.073304 31.364186 -2.871232
2007-03-14 07:29:40 51°13.598 2°56.094 16.1958 4.073201 31.363296 -2.871232
2007-03-14 07:29:45 51°13.598 2°56.094 16.1963 4.073097 31.363101 -2.871232
2007-03-14 07:29:50 51°13.598 2°56.094 16.1964 4.073097 31.363101 -2.871232
2007-03-14 07:29:55 51°13.598 2°56.094 16.1976 4.073097 31.363101 -2.871232
2007-03-14 07:30:00 51°13.598 2°56.094 16.1989 4.073097 31.363796 -2.871232
2007-03-14 07:30:05 51°13.598 2°56.094 16.1993 4.072993 31.362906 -2.871232
2007-03-14 07:30:10 51°13.598 2°56.094 16.1992 4.072993 31.363601 -2.871232
2007-03-14 07:30:15 51°13.598 2°56.094 16.1992 4.07289 31.363407 -2.871232
2007-03-14 07:30:20 51°13.598 2°56.094 16.1996 4.07289 31.363407 -2.871232
2007-03-14 07:30:25 51°13.598 2°56.094 16.197 4.07289 31.363407 -2.871232
2007-03-14 07:30:30 51°13.598 2°56.094 16.199 4.07289 31.364102 -2.871232
2007-03-14 07:30:35 51°13.598 2°56.094 16.1944 4.072786 31.363212 -2.871232
2007-03-14 07:30:40 51°13.598 2°56.094 16.1929 4.072786 31.363907 -2.871232
2007-03-14 07:30:45 51°13.598 2°56.094 16.194 4.072682 31.363017 -2.871232
2007-03-14 07:30:50 51°13.598 2°56.094 16.1946 4.072682 31.363017 -2.871232
2007-03-14 07:30:55 51°13.598 2°56.094 16.1943 4.072682 31.363712 -2.871232
2007-03-14 07:31:00 51°13.598 2°56.094 16.1962 4.072579 31.362822 -2.871232
2007-03-14 07:31:05 51°13.598 2°56.094 16.1958 4.072579 31.363517 -2.871232
2007-03-14 07:31:10 51°13.598 2°56.094 16.1978 4.072475 31.363322 -2.871232
2007-03-14 07:31:15 51°13.598 2°56.094 16.1975 4.072475 31.363322 -2.871232
2007-03-14 07:31:20 51°13.598 2°56.094 16.1988 4.072475 31.363322 -2.871232
2007-03-14 07:31:25 51°13.598 2°56.094 16.1983 4.072371 31.363127 -2.871232
2007-03-14 07:31:30 51°13.598 2°56.094 16.2036 4.072371 31.363127 -2.871232
2007-03-14 07:31:35 51°13.598 2°56.094 16.2045 4.072371 31.363822 -2.871232
2007-03-14 07:31:40 51°13.598 2°56.094 16.2278 4.072268 31.363627 -2.871232
2007-03-14 07:31:45 51°13.598 2°56.094 16.2213 4.072268 31.363627 -2.871232
2007-03-14 07:31:50 51°13.598 2°56.094 16.2313 4.072268 31.363627 -2.871232
2007-03-14 07:31:55 51°13.598 2°56.094 16.227 4.072164 31.363432 -2.871232
2007-03-14 07:32:00 51°13.598 2°56.094 16.23 4.072164 31.363432 -2.871232
2007-03-14 07:32:05 51°13.598 2°56.094 16.2271 4.07206 31.363238 -2.871232
2007-03-14 07:32:10 51°13.598 2°56.094 16.2277 4.07206 31.363238 -2.871232
2007-03-14 07:32:15 51°13.598 2°56.094 16.2264 4.071956 31.363043 -2.871232
2007-03-14 07:32:20 51°13.598 2°56.094 16.2267 4.071956 31.363043 -2.871232
2007-03-14 07:32:25 51°13.598 2°56.094 16.2225 4.071956 31.363043 -2.871232
2007-03-14 07:32:30 51°13.598 2°56.094 16.2226 4.071956 31.363738 -2.871232
2007-03-14 07:32:35 51°13.599 2°56.094 16.2218 4.071853 31.363543 -2.871232
2007-03-14 07:32:40 51°13.599 2°56.094 16.2234 4.071853 31.363543 -2.871232
2007-03-14 07:32:45 51°13.599 2°56.094 16.2235 4.071749 31.363348 -2.871232
2007-03-14 07:32:50 51°13.599 2°56.094 16.2249 4.071749 31.364044 -2.871232
2007-03-14 07:32:55 51°13.598 2°56.094 16.2254 4.071749 31.364044 -2.871232
2007-03-14 07:33:00 51°13.598 2°56.094 16.2259 4.071645 31.363153 -2.871232
2007-03-14 07:33:05 51°13.598 2°56.094 16.2226 4.071645 31.363849 -2.871232
2007-03-14 07:33:10 51°13.598 2°56.094 16.2249 4.071542 31.362958 -2.871232
2007-03-14 07:33:15 51°13.598 2°56.094 16.2248 4.071542 31.363654 -2.871232
2007-03-14 07:33:20 51°13.598 2°56.094 16.2259 4.071542 31.364349 -2.871232
2007-03-14 07:33:25 51°13.598 2°56.094 16.2249 4.071542 31.364349 -2.871232
2007-03-14 07:33:30 51°13.598 2°56.094 16.2269 4.071438 31.363459 -2.871232
2007-03-14 07:33:35 51°13.598 2°56.094 16.2257 4.071438 31.364154 -2.871232
2007-03-14 07:33:40 51°13.598 2°56.094 16.2242 4.071334 31.363264 -2.871232
2007-03-14 07:33:45 51°13.598 2°56.094 16.223 4.071334 31.363959 -2.871232
2007-03-14 07:33:50 51°13.597 2°56.094 16.2204 4.071334 31.363959 -2.871232
2007-03-14 07:33:55 51°13.597 2°56.094 16.2208 4.071231 31.363069 -2.871232
2007-03-14 07:34:00 51°13.597 2°56.094 16.2223 4.071231 31.363764 -2.871232
2007-03-14 07:34:05 51°13.597 2°56.094 16.2214 4.071127 31.362874 -2.871232
2007-03-14 07:34:10 51°13.597 2°56.094 16.2197 4.071127 31.363569 -2.871232
2007-03-14 07:34:15 51°13.597 2°56.094 16.2195 4.071023 31.363375 -2.871232
2007-03-14 07:34:20 51°13.597 2°56.094 16.2219 4.071023 31.363375 -2.871232
2007-03-14 07:34:25 51°13.597 2°56.094 16.227 4.071023 31.363375 -2.871232
2007-03-14 07:34:30 51°13.598 2°56.094 16.2227 4.071023 31.36407 -2.871232
2007-03-14 07:34:35 51°13.598 2°56.094 16.2354 4.07092 31.363875 -2.871232
2007-03-14 07:34:40 51°13.598 2°56.094 16.239 4.07092 31.363875 -2.871232
2007-03-14 07:34:45 51°13.598 2°56.094 16.2411 4.070816 31.36368 -2.871232
2007-03-14 07:34:50 51°13.598 2°56.094 16.2786 4.070816 31.36368 -2.871232
2007-03-14 07:34:55 51°13.598 2°56.094 16.2955 4.070816 31.36368 -2.871232
2007-03-14 07:35:00 51°13.598 2°56.094 16.2749 4.070712 31.363485 -2.871232
2007-03-14 07:35:05 51°13.598 2°56.094 16.2548 4.070712 31.364181 -2.871232
2007-03-14 07:35:10 51°13.598 2°56.094 16.2506 4.070712 31.364181 -2.871232
2007-03-14 07:35:15 51°13.598 2°56.094 16.2509 4.070609 31.363986 -2.871232
2007-03-14 07:35:20 51°13.598 2°56.094 16.2488 4.070609 31.363986 -2.871232
2007-03-14 07:35:25 51°13.598 2°56.094 16.253 4.070609 31.363986 -2.871232
2007-03-14 07:35:30 51°13.598 2°56.094 16.2291 4.070505 31.363791 -2.871232
2007-03-14 07:35:35 51°13.598 2°56.094 16.2393 4.070505 31.364487 -2.871232
2007-03-14 07:35:40 51°13.598 2°56.094 16.2039 4.070401 31.363596 -2.871232
2007-03-14 07:35:45 51°13.598 2°56.094 16.1932 4.070401 31.364292 -2.871232
2007-03-14 07:35:50 51°13.597 2°56.094 16.2004 4.070298 31.363401 -2.871232
2007-03-14 07:35:55 51°13.597 2°56.094 16.204 4.070298 31.363401 -2.871232
2007-03-14 07:36:00 51°13.597 2°56.094 16.2069 4.070298 31.364097 -2.871232
2007-03-14 07:36:05 51°13.597 2°56.094 16.2062 4.070194 31.363206 -2.871232
2007-03-14 07:36:10 51°13.597 2°56.094 16.2098 4.070194 31.363902 -2.871232
2007-03-14 07:36:15 51°13.597 2°56.094 16.2087 4.070194 31.364598 -2.871232
2007-03-14 07:36:20 51°13.597 2°56.094 16.2083 4.07009 31.363707 -2.871232
2007-03-14 07:36:25 51°13.597 2°56.094 16.2098 4.07009 31.363707 -2.871232
2007-03-14 07:36:30 51°13.597 2°56.094 16.214 4.07009 31.364403 -2.871232
2007-03-14 07:36:35 51°13.598 2°56.094 16.2077 4.069987 31.363512 -2.871232
2007-03-14 07:36:40 51°13.597 2°56.094 16.2116 4.069987 31.364208 -2.871232
2007-03-14 07:36:45 51°13.598 2°56.094 16.2123 4.069883 31.364013 -2.871232
2007-03-14 07:36:50 51°13.598 2°56.094 16.2135 4.069883 31.364013 -2.871232
2007-03-14 07:36:55 51°13.598 2°56.094 16.2133 4.069883 31.364013 -2.871232
2007-03-14 07:37:00 51°13.598 2°56.094 16.2134 4.069779 31.363122 -2.871232
2007-03-14 07:37:05 51°13.598 2°56.094 16.214 4.069779 31.363818 -2.871232
2007-03-14 07:37:10 51°13.598 2°56.094 16.2137 4.069676 31.363623 -2.871232
2007-03-14 07:37:15 51°13.598 2°56.094 16.2149 4.069676 31.363623 -2.871232
2007-03-14 07:37:20 51°13.598 2°56.094 16.216 4.069676 31.363623 -2.871232
2007-03-14 07:37:25 51°13.598 2°56.095 16.2177 4.069676 31.364319 -2.871232
2007-03-14 07:37:30 51°13.598 2°56.095 16.2177 4.069572 31.363428 -2.871232
2007-03-14 07:37:35 51°13.598 2°56.095 16.2188 4.069572 31.364124 -2.871232
2007-03-14 07:37:40 51°13.598 2°56.095 16.2186 4.069468 31.363929 -2.871232
2007-03-14 07:37:45 51°13.598 2°56.095 16.2194 4.069468 31.363929 -2.871232
2007-03-14 07:37:50 51°13.598 2°56.095 16.2202 4.069364 31.363734 -2.871232
2007-03-14 07:37:55 51°13.599 2°56.095 16.2206 4.069364 31.363734 -2.871232
2007-03-14 07:38:00 51°13.599 2°56.095 16.2221 4.069364 31.363734 -2.871232
2007-03-14 07:38:05 51°13.599 2°56.095 16.2225 4.069261 31.363539 -2.871232
2007-03-14 07:38:10 51°13.599 2°56.094 16.2228 4.069261 31.364235 -2.871232
2007-03-14 07:38:15 51°13.599 2°56.094 16.2237 4.069261 31.364235 -2.871232
2007-03-14 07:38:20 51°13.599 2°56.094 16.224 4.069157 31.36404 -2.871232
2007-03-14 07:38:25 51°13.599 2°56.094 16.2245 4.069157 31.36404 -2.871232
2007-03-14 07:38:30 51°13.599 2°56.094 16.2126 4.069157 31.36404 -2.871232
2007-03-14 07:38:35 51°13.599 2°56.094 16.2007 4.069053 31.363845 -2.871232
2007-03-14 07:38:40 51°13.599 2°56.094 16.2076 4.069053 31.363845 -2.871232
2007-03-14 07:38:45 51°13.599 2°56.094 16.1923 4.06895 31.36365 -2.871232
2007-03-14 07:38:50 51°13.599 2°56.094 16.2005 4.06895 31.36365 -2.871232
2007-03-14 07:38:55 51°13.599 2°56.094 16.2023 4.06895 31.364347 -2.871232
2007-03-14 07:39:00 51°13.599 2°56.094 16.2107 4.068846 31.363455 -2.871232
2007-03-14 07:39:05 51°13.599 2°56.094 16.2133 4.068846 31.364152 -2.871232
2007-03-14 07:39:10 51°13.599 2°56.094 16.2145 4.068846 31.364152 -2.871232
2007-03-14 07:39:15 51°13.599 2°56.094 16.2166 4.068742 31.36326 -2.871232
2007-03-14 07:39:20 51°13.599 2°56.094 16.218 4.068742 31.363957 -2.871232
2007-03-14 07:39:25 51°13.599 2°56.094 16.2183 4.068742 31.363957 -2.871232
2007-03-14 07:39:30 51°13.599 2°56.094 16.2172 4.068639 31.363762 -2.871232
2007-03-14 07:39:35 51°13.599 2°56.094 16.2187 4.068639 31.363762 -2.871232
2007-03-14 07:39:40 51°13.599 2°56.095 16.2191 4.068535 31.363567 -2.871232
2007-03-14 07:39:45 51°13.599 2°56.095 16.2202 4.068535 31.363567 -2.871232
2007-03-14 07:39:50 51°13.599 2°56.095 16.2211 4.068535 31.363567 -2.871232
2007-03-14 07:39:55 51°13.599 2°56.095 16.2216 4.068431 31.363372 -2.871232
2007-03-14 07:40:00 51°13.599 2°56.095 16.2219 4.068431 31.363372 -2.871232
2007-03-14 07:40:05 51°13.599 2°56.095 16.2226 4.068431 31.364068 -2.871232
2007-03-14 07:40:10 51°13.599 2°56.095 16.2241 4.068328 31.363873 -2.871232
2007-03-14 07:40:15 51°13.599 2°56.095 16.2237 4.068328 31.363873 -2.871232
2007-03-14 07:40:20 51°13.599 2°56.095 16.2205 4.068328 31.363873 -2.871232
2007-03-14 07:40:25 51°13.599 2°56.095 16.2177 4.068224 31.363678 -2.871232
2007-03-14 07:40:30 51°13.599 2°56.095 16.2197 4.068224 31.363678 -2.871232
2007-03-14 07:40:35 51°13.599 2°56.095 16.2169 4.06812 31.363483 -2.871232
2007-03-14 07:40:40 51°13.599 2°56.095 16.2212 4.06812 31.364179 -2.871232
2007-03-14 07:40:45 51°13.599 2°56.095 16.2159 4.068017 31.363288 -2.871232
2007-03-14 07:40:50 51°13.599 2°56.095 16.2197 4.068017 31.363984 -2.871232
2007-03-14 07:40:55 51°13.599 2°56.095 16.2069 4.068017 31.363984 -2.871232
2007-03-14 07:41:00 51°13.599 2°56.095 16.2137 4.068017 31.363984 -2.871232
2007-03-14 07:41:05 51°13.598 2°56.095 16.2047 4.067913 31.363789 -2.871232
2007-03-14 07:41:10 51°13.598 2°56.095 16.2144 4.067913 31.363789 -2.871232
2007-03-14 07:41:15 51°13.598 2°56.095 16.2083 4.067809 31.363594 -2.871232
2007-03-14 07:41:20 51°13.598 2°56.095 16.2166 4.067809 31.364291 -2.871232
2007-03-14 07:41:25 51°13.598 2°56.095 16.2148 4.067809 31.364291 -2.871232
2007-03-14 07:41:30 51°13.598 2°56.095 16.2216 4.067706 31.363399 -2.871232
2007-03-14 07:41:35 51°13.598 2°56.095 16.223 4.067706 31.364096 -2.871232
2007-03-14 07:41:40 51°13.598 2°56.095 16.2259 4.067706 31.364096 -2.871232
2007-03-14 07:41:45 51°13.598 2°56.095 16.2262 4.067602 31.363901 -2.871232
2007-03-14 07:41:50 51°13.598 2°56.095 16.2296 4.067602 31.363901 -2.871232
2007-03-14 07:41:55 51°13.598 2°56.095 16.2284 4.067498 31.363009 -2.871232
2007-03-14 07:42:00 51°13.598 2°56.094 16.2311 4.067498 31.363706 -2.871232
2007-03-14 07:42:05 51°13.598 2°56.094 16.2324 4.067498 31.364402 -2.871232
2007-03-14 07:42:10 51°13.598 2°56.094 16.2381 4.067395 31.363511 -2.871232
2007-03-14 07:42:15 51°13.598 2°56.094 16.2371 4.067395 31.364207 -2.871232
2007-03-14 07:42:20 51°13.598 2°56.094 16.2348 4.067395 31.364207 -2.871232
2007-03-14 07:42:25 51°13.598 2°56.094 16.2376 4.067291 31.363316 -2.871232
2007-03-14 07:42:30 51°13.598 2°56.094 16.2388 4.067291 31.364012 -2.871232
2007-03-14 07:42:35 51°13.598 2°56.094 16.2383 4.067291 31.364012 -2.871232
2007-03-14 07:42:40 51°13.598 2°56.094 16.2374 4.067187 31.363817 -2.871232
2007-03-14 07:42:45 51°13.598 2°56.094 16.2358 4.067187 31.363817 -2.871232
2007-03-14 07:42:50 51°13.598 2°56.094 16.2395 4.067187 31.363817 -2.871232
2007-03-14 07:42:55 51°13.598 2°56.094 16.2383 4.067083 31.363622 -2.871232
2007-03-14 07:43:00 51°13.598 2°56.094 16.2369 4.067083 31.364319 -2.871232
2007-03-14 07:43:05 51°13.598 2°56.094 16.2332 4.06698 31.363427 -2.871232
2007-03-14 07:43:10 51°13.598 2°56.094 16.2358 4.06698 31.364124 -2.871232
2007-03-14 07:43:15 51°13.598 2°56.094 16.2343 4.066876 31.363232 -2.871232
2007-03-14 07:43:20 51°13.598 2°56.094 16.2358 4.066876 31.363232 -2.871232
2007-03-14 07:43:25 51°13.598 2°56.095 16.2372 4.066876 31.363929 -2.871232
2007-03-14 07:43:30 51°13.598 2°56.095 16.239 4.066876 31.364625 -2.871232
2007-03-14 07:43:35 51°13.598 2°56.095 16.2394 4.066772 31.363734 -2.871232
2007-03-14 07:43:40 51°13.598 2°56.095 16.2414 4.066772 31.36443 -2.871232
2007-03-14 07:43:45 51°13.598 2°56.095 16.2434 4.066669 31.363539 -2.871232
2007-03-14 07:43:50 51°13.598 2°56.095 16.2426 4.066669 31.364235 -2.871232
2007-03-14 07:43:55 51°13.598 2°56.095 16.2463 4.066669 31.364235 -2.871232
2007-03-14 07:44:00 51°13.598 2°56.095 16.2475 4.066565 31.363344 -2.871232
2007-03-14 07:44:05 51°13.598 2°56.095 16.2525 4.066565 31.36404 -2.871232
2007-03-14 07:44:10 51°13.598 2°56.095 16.2509 4.066565 31.364737 -2.871232
2007-03-14 07:44:15 51°13.598 2°56.095 16.2518 4.066461 31.363846 -2.871232
2007-03-14 07:44:20 51°13.598 2°56.095 16.2517 4.066461 31.364542 -2.871232
2007-03-14 07:44:25 51°13.598 2°56.095 16.2488 4.066461 31.364542 -2.871232
2007-03-14 07:44:30 51°13.598 2°56.095 16.2463 4.066358 31.364347 -2.871232
2007-03-14 07:44:35 51°13.598 2°56.095 16.2466 4.066358 31.364347 -2.871232
2007-03-14 07:44:40 51°13.598 2°56.095 16.2421 4.066358 31.364347 -2.871232
2007-03-14 07:44:45 51°13.598 2°56.095 16.243 4.066254 31.364152 -2.871232
2007-03-14 07:44:50 51°13.598 2°56.095 16.2419 4.066254 31.364152 -2.871232
2007-03-14 07:44:55 51°13.598 2°56.095 16.2401 4.066254 31.364849 -2.871232
2007-03-14 07:45:00 51°13.598 2°56.095 16.2387 4.06615 31.363957 -2.871232
2007-03-14 07:45:05 51°13.598 2°56.095 16.2348 4.06615 31.364654 -2.871232
2007-03-14 07:45:10 51°13.598 2°56.095 16.2364 4.066047 31.363762 -2.871232
2007-03-14 07:45:15 51°13.598 2°56.095 16.2331 4.066047 31.364459 -2.871232
2007-03-14 07:45:20 51°13.598 2°56.095 16.2349 4.066047 31.364459 -2.871232
2007-03-14 07:45:25 51°13.598 2°56.095 16.2346 4.065943 31.364264 -2.871232
2007-03-14 07:45:30 51°13.598 2°56.095 16.2354 4.065943 31.364264 -2.871232
2007-03-14 07:45:35 51°13.598 2°56.095 16.2337 4.065839 31.364069 -2.871232
2007-03-14 07:45:40 51°13.598 2°56.095 16.2324 4.065839 31.364766 -2.871232
2007-03-14 07:45:45 51°13.598 2°56.095 16.2344 4.065736 31.363874 -2.871232
2007-03-14 07:45:50 51°13.598 2°56.095 16.2327 4.065736 31.363874 -2.871232
2007-03-14 07:45:55 51°13.598 2°56.095 16.2344 4.065736 31.363874 -2.871232
2007-03-14 07:46:00 51°13.598 2°56.095 16.2357 4.065736 31.364571 -2.871232
2007-03-14 07:46:05 51°13.598 2°56.095 16.2369 4.065632 31.364376 -2.871232
2007-03-14 07:46:10 51°13.598 2°56.095 16.2371 4.065632 31.364376 -2.871232
2007-03-14 07:46:15 51°13.598 2°56.095 16.2372 4.065528 31.364181 -2.871232
2007-03-14 07:46:20 51°13.598 2°56.095 16.2378 4.065528 31.364878 -2.871232
2007-03-14 07:46:25 51°13.598 2°56.095 16.242 4.065528 31.364878 -2.871232
2007-03-14 07:46:30 51°13.598 2°56.095 16.2388 4.065425 31.363986 -2.871232
2007-03-14 07:46:35 51°13.598 2°56.096 16.2343 4.065425 31.364683 -2.871232
2007-03-14 07:46:40 51°13.598 2°56.096 16.236 4.065425 31.364683 -2.871232
2007-03-14 07:46:45 51°13.598 2°56.096 16.2342 4.065321 31.364488 -2.871232
2007-03-14 07:46:50 51°13.598 2°56.096 16.2393 4.065321 31.364488 -2.871232
2007-03-14 07:46:55 51°13.598 2°56.096 16.2345 4.065321 31.364488 -2.871232
2007-03-14 07:47:00 51°13.598 2°56.096 16.2357 4.065217 31.364293 -2.871232
2007-03-14 07:47:05 51°13.598 2°56.096 16.2337 4.065217 31.364293 -2.871232
2007-03-14 07:47:10 51°13.598 2°56.096 16.2278 4.065114 31.364098 -2.871232
2007-03-14 07:47:15 51°13.598 2°56.096 16.2186 4.065114 31.364795 -2.871232
2007-03-14 07:47:20 51°13.598 2°56.096 16.2101 4.065114 31.364795 -2.871232
2007-03-14 07:47:25 51°13.598 2°56.096 16.2088 4.065114 31.364795 -2.871232
2007-03-14 07:47:30 51°13.598 2°56.095 16.2104 4.06501 31.3646 -2.871232
2007-03-14 07:47:35 51°13.598 2°56.095 16.2132 4.06501 31.3646 -2.871232
2007-03-14 07:47:40 51°13.598 2°56.095 16.2155 4.064906 31.364405 -2.871232
2007-03-14 07:47:45 51°13.598 2°56.095 16.2205 4.064906 31.365102 -2.871232
2007-03-14 07:47:50 51°13.598 2°56.095 16.224 4.064906 31.365102 -2.871232
2007-03-14 07:47:55 51°13.598 2°56.095 16.2263 4.064803 31.36421 -2.871232
2007-03-14 07:48:00 51°13.598 2°56.095 16.228 4.064803 31.364907 -2.871232
2007-03-14 07:48:05 51°13.598 2°56.095 16.2309 4.064699 31.364015 -2.871232
2007-03-14 07:48:10 51°13.598 2°56.095 16.2321 4.064699 31.364712 -2.871232
2007-03-14 07:48:15 51°13.598 2°56.095 16.2343 4.064699 31.364712 -2.871232
2007-03-14 07:48:20 51°13.598 2°56.095 16.2355 4.064699 31.364712 -2.871232
2007-03-14 07:48:25 51°13.598 2°56.095 16.2372 4.064595 31.364517 -2.871232
2007-03-14 07:48:30 51°13.598 2°56.095 16.2399 4.064595 31.365214 -2.871232
2007-03-14 07:48:35 51°13.598 2°56.095 16.2399 4.064491 31.364322 -2.871232
2007-03-14 07:48:40 51°13.598 2°56.094 16.2413 4.064492 31.365019 -2.871232
2007-03-14 07:48:45 51°13.598 2°56.094 16.2413 4.064388 31.364824 -2.871232
2007-03-14 07:48:50 51°13.598 2°56.094 16.2441 4.064388 31.364824 -2.871232
2007-03-14 07:48:55 51°13.598 2°56.094 16.2444 4.064388 31.364824 -2.871232
2007-03-14 07:49:00 51°13.598 2°56.095 16.2453 4.064284 31.364629 -2.871232
2007-03-14 07:49:05 51°13.598 2°56.095 16.2446 4.064284 31.364629 -2.871232
2007-03-14 07:49:10 51°13.598 2°56.095 16.2455 4.06418 31.364434 -2.871232
2007-03-14 07:49:15 51°13.598 2°56.095 16.2469 4.06418 31.364434 -2.871232
2007-03-14 07:49:20 51°13.598 2°56.095 16.2469 4.06418 31.365131 -2.871232
2007-03-14 07:49:25 51°13.598 2°56.095 16.2328 4.06418 31.365131 -2.871232
2007-03-14 07:49:30 51°13.598 2°56.095 16.2377 4.064077 31.364239 -2.871232
2007-03-14 07:49:35 51°13.599 2°56.095 16.2349 4.064077 31.364936 -2.871232
2007-03-14 07:49:40 51°13.599 2°56.095 16.2387 4.063973 31.364741 -2.871232
2007-03-14 07:49:45 51°13.599 2°56.095 16.2379 4.063973 31.364741 -2.871232
2007-03-14 07:49:50 51°13.599 2°56.095 16.236 4.063973 31.365438 -2.871232
2007-03-14 07:49:55 51°13.599 2°56.094 16.2298 4.063973 31.365438 -2.871232
2007-03-14 07:50:00 51°13.599 2°56.094 16.231 4.063869 31.365243 -2.871232
2007-03-14 07:50:05 51°13.599 2°56.094 16.2286 4.063766 31.364351 -2.871232
2007-03-14 07:50:10 51°13.599 2°56.094 16.2327 4.063766 31.365049 -2.871232
2007-03-14 07:50:15 51°13.599 2°56.094 16.2321 4.063766 31.365049 -2.871232
2007-03-14 07:50:20 51°13.599 2°56.094 16.2312 4.063662 31.364854 -2.871232
2007-03-14 07:50:25 51°13.599 2°56.094 16.2303 4.063662 31.364854 -2.871232
2007-03-14 07:50:30 51°13.599 2°56.094 16.2266 4.063662 31.364854 -2.871232
2007-03-14 07:50:35 51°13.599 2°56.094 16.2202 4.063558 31.364659 -2.871232
2007-03-14 07:50:40 51°13.599 2°56.094 16.2077 4.063558 31.364659 -2.871232
2007-03-14 07:50:45 51°13.599 2°56.094 16.2065 4.063455 31.364464 -2.871232
2007-03-14 07:50:50 51°13.599 2°56.094 16.2058 4.063455 31.364464 -2.871232
2007-03-14 07:50:55 51°13.599 2°56.094 16.2102 4.063455 31.365161 -2.871232
2007-03-14 07:51:00 51°13.599 2°56.094 16.2128 4.063455 31.365161 -2.871232
2007-03-14 07:51:05 51°13.599 2°56.094 16.2194 4.063351 31.364966 -2.871232
2007-03-14 07:51:10 51°13.599 2°56.094 16.2278 4.063351 31.364966 -2.871232
2007-03-14 07:51:15 51°13.599 2°56.094 16.2283 4.063247 31.364771 -2.871232
2007-03-14 07:51:20 51°13.599 2°56.094 16.2334 4.063247 31.364771 -2.871232
2007-03-14 07:51:25 51°13.599 2°56.094 16.2357 4.063247 31.364771 -2.871232
2007-03-14 07:51:30 51°13.599 2°56.094 16.2378 4.063144 31.364576 -2.871232
2007-03-14 07:51:35 51°13.599 2°56.094 16.2411 4.063144 31.364576 -2.871232
2007-03-14 07:51:40 51°13.599 2°56.094 16.2442 4.06304 31.364381 -2.871232
2007-03-14 07:51:45 51°13.599 2°56.094 16.245 4.06304 31.365078 -2.871232
2007-03-14 07:51:50 51°13.599 2°56.094 16.2417 4.062936 31.364186 -2.871232
2007-03-14 07:51:55 51°13.599 2°56.094 16.2375 4.062936 31.364186 -2.871232
2007-03-14 07:52:00 51°13.599 2°56.094 16.2393 4.062936 31.364883 -2.871232
2007-03-14 07:52:05 51°13.599 2°56.094 16.234 4.062936 31.364883 -2.871232
2007-03-14 07:52:10 51°13.599 2°56.094 16.2339 4.062833 31.364688 -2.871232
2007-03-14 07:52:15 51°13.599 2°56.094 16.2329 4.062833 31.365386 -2.871232
2007-03-14 07:52:20 51°13.599 2°56.094 16.2326 4.062729 31.364493 -2.871232
2007-03-14 07:52:25 51°13.599 2°56.094 16.2336 4.062729 31.364493 -2.871232
2007-03-14 07:52:30 51°13.599 2°56.094 16.2293 4.062729 31.364493 -2.871232
2007-03-14 07:52:35 51°13.599 2°56.094 16.2277 4.062625 31.364996 -2.871232
2007-03-14 07:52:40 51°13.599 2°56.094 16.226 4.062625 31.364996 -2.871232
2007-03-14 07:52:45 51°13.599 2°56.094 16.2264 4.062625 31.364996 -2.871232
2007-03-14 07:52:50 51°13.599 2°56.094 16.2259 4.062522 31.364801 -2.871232
2007-03-14 07:52:55 51°13.599 2°56.094 16.2258 4.062522 31.364801 -2.871232
2007-03-14 07:53:00 51°13.599 2°56.094 16.2296 4.062522 31.365498 -2.871232
2007-03-14 07:53:05 51°13.599 2°56.094 16.2317 4.062418 31.364606 -2.871232
2007-03-14 07:53:10 51°13.599 2°56.094 16.2344 4.062418 31.365303 -2.871232
2007-03-14 07:53:15 51°13.599 2°56.094 16.2376 4.062314 31.364411 -2.871232
2007-03-14 07:53:20 51°13.599 2°56.094 16.2318 4.062314 31.364411 -2.871232
2007-03-14 07:53:25 51°13.599 2°56.094 16.2278 4.062314 31.364411 -2.871232
2007-03-14 07:53:30 51°13.599 2°56.094 16.226 4.062211 31.364216 -2.871232
2007-03-14 07:53:35 51°13.599 2°56.094 16.2216 4.062211 31.364216 -2.871232
2007-03-14 07:53:40 51°13.599 2°56.094 16.2258 4.062211 31.364913 -2.871232
2007-03-14 07:53:45 51°13.599 2°56.094 16.2201 4.062107 31.364719 -2.871232
2007-03-14 07:53:50 51°13.599 2°56.094 16.2238 4.062107 31.364719 -2.871232
2007-03-14 07:53:55 51°13.599 2°56.094 16.2134 4.062107 31.364719 -2.871232
2007-03-14 07:54:00 51°13.599 2°56.094 16.2191 4.062003 31.364524 -2.871232
2007-03-14 07:54:05 51°13.599 2°56.094 16.2295 4.062003 31.365221 -2.871232
2007-03-14 07:54:10 51°13.599 2°56.094 16.2283 4.0619 31.364329 -2.871232
2007-03-14 07:54:15 51°13.599 2°56.094 16.2365 4.0619 31.365026 -2.871232
2007-03-14 07:54:20 51°13.599 2°56.093 16.2382 4.0619 31.365026 -2.871232
2007-03-14 07:54:25 51°13.599 2°56.093 16.2416 4.0619 31.365026 -2.871232
2007-03-14 07:54:30 51°13.598 2°56.094 16.2456 4.061796 31.364831 -2.871232
2007-03-14 07:54:35 51°13.598 2°56.094 16.2452 4.061796 31.365529 -2.871232
2007-03-14 07:54:40 51°13.598 2°56.094 16.2461 4.061692 31.364636 -2.871232
2007-03-14 07:54:45 51°13.598 2°56.094 16.3105 4.061692 31.365334 -2.871232
2007-03-14 07:54:50 51°13.598 2°56.094 16.3239 4.061588 31.364441 -2.871232
2007-03-14 07:54:55 51°13.598 2°56.094 16.395 4.061588 31.364441 -2.871232
2007-03-14 07:55:00 51°13.598 2°56.094 16.3729 4.061588 31.365139 -2.871232
2007-03-14 07:55:05 51°13.598 2°56.094 16.3875 4.061588 31.365837 -2.871232
2007-03-14 07:55:10 51°13.598 2°56.094 16.3921 4.061485 31.364944 -2.871232
2007-03-14 07:55:15 51°13.598 2°56.094 16.413 4.061485 31.365642 -2.871232
2007-03-14 07:55:20 51°13.598 2°56.094 16.4062 4.061381 31.364749 -2.871232
2007-03-14 07:55:25 51°13.599 2°56.094 16.4046 4.061381 31.364749 -2.871232
2007-03-14 07:55:30 51°13.599 2°56.094 16.3981 4.061381 31.365447 -2.871232
2007-03-14 07:55:35 51°13.599 2°56.094 16.3962 4.061381 31.365447 -2.871232
2007-03-14 07:55:40 51°13.599 2°56.094 16.3937 4.061277 31.365252 -2.871232
2007-03-14 07:55:45 51°13.599 2°56.094 16.3909 4.061277 31.365949 -2.871232
2007-03-14 07:55:50 51°13.599 2°56.094 16.3848 4.061174 31.365057 -2.871232
2007-03-14 07:55:55 51°13.599 2°56.094 16.3812 4.061174 31.365057 -2.871232
2007-03-14 07:56:00 51°13.599 2°56.094 16.3773 4.061174 31.365754 -2.871232
2007-03-14 07:56:05 51°13.599 2°56.094 16.3749 4.06107 31.365559 -2.871232
2007-03-14 07:56:10 51°13.599 2°56.094 16.3701 4.06107 31.365559 -2.871232
2007-03-14 07:56:15 51°13.599 2°56.094 16.3692 4.06107 31.366257 -2.871232
2007-03-14 07:56:20 51°13.599 2°56.094 16.3631 4.06107 31.366257 -2.871232
2007-03-14 07:56:25 51°13.599 2°56.094 16.3638 4.060966 31.365365 -2.871232
2007-03-14 07:56:30 51°13.599 2°56.094 16.3599 4.060966 31.366062 -2.871232
2007-03-14 07:56:35 51°13.599 2°56.094 16.3589 4.060863 31.365867 -2.871232
2007-03-14 07:56:40 51°13.599 2°56.094 16.3568 4.060863 31.365867 -2.871232
2007-03-14 07:56:45 51°13.599 2°56.094 16.3553 4.060863 31.366565 -2.871232
2007-03-14 07:56:50 51°13.599 2°56.094 16.3534 4.060863 31.366565 -2.871232
2007-03-14 07:56:55 51°13.599 2°56.094 16.3521 4.060759 31.365672 -2.871232
2007-03-14 07:57:00 51°13.599 2°56.094 16.3516 4.060759 31.36637 -2.871232
2007-03-14 07:57:05 51°13.599 2°56.094 16.351 4.060655 31.365477 -2.871232
2007-03-14 07:57:10 51°13.599 2°56.094 16.3512 4.060655 31.366175 -2.871232
2007-03-14 07:57:15 51°13.599 2°56.094 16.3506 4.060552 31.365282 -2.871232
2007-03-14 07:57:20 51°13.599 2°56.094 16.35 4.060552 31.36598 -2.871232
2007-03-14 07:57:25 51°13.599 2°56.094 16.3502 4.060552 31.36598 -2.871232
2007-03-14 07:57:30 51°13.599 2°56.094 16.3492 4.060552 31.36598 -2.871232
2007-03-14 07:57:35 51°13.599 2°56.094 16.35 4.060448 31.365785 -2.871232
2007-03-14 07:57:40 51°13.599 2°56.094 16.3483 4.060448 31.365785 -2.871232
2007-03-14 07:57:45 51°13.599 2°56.094 16.343 4.060344 31.36559 -2.871232
2007-03-14 07:57:50 51°13.599 2°56.094 16.3383 4.060344 31.366288 -2.871232
2007-03-14 07:57:55 51°13.599 2°56.094 16.3456 4.060344 31.366288 -2.871232
2007-03-14 07:58:00 51°13.599 2°56.094 16.3374 4.060241 31.365395 -2.871232
2007-03-14 07:58:05 51°13.599 2°56.094 16.3174 4.060241 31.366093 -2.871232
2007-03-14 07:58:10 51°13.599 2°56.094 16.3135 4.060241 31.366093 -2.871232
2007-03-14 07:58:15 51°13.599 2°56.094 16.3166 4.060137 31.365898 -2.871232
2007-03-14 07:58:20 51°13.599 2°56.094 16.3189 4.060137 31.365898 -2.871232
2007-03-14 07:58:25 51°13.599 2°56.094 16.3202 4.060137 31.365898 -2.871232
2007-03-14 07:58:30 51°13.599 2°56.094 16.3218 4.060033 31.365704 -2.871232
2007-03-14 07:58:35 51°13.599 2°56.094 16.3249 4.060033 31.365704 -2.871232
2007-03-14 07:58:40 51°13.599 2°56.093 16.3249 4.05993 31.365509 -2.871232
2007-03-14 07:58:45 51°13.599 2°56.094 16.3256 4.05993 31.365509 -2.871232
2007-03-14 07:58:50 51°13.599 2°56.093 16.326 4.05993 31.365509 -2.871232
2007-03-14 07:58:55 51°13.598 2°56.093 16.3274 4.05993 31.366207 -2.871232
2007-03-14 07:59:00 51°13.598 2°56.093 16.3318 4.059826 31.366012 -2.871232
2007-03-14 07:59:05 51°13.598 2°56.093 16.3357 4.059826 31.36671 -2.871232
2007-03-14 07:59:10 51°13.598 2°56.093 16.3329 4.059722 31.365817 -2.871232
2007-03-14 07:59:15 51°13.598 2°56.093 16.3336 4.059722 31.366515 -2.871232
2007-03-14 07:59:20 51°13.598 2°56.093 16.3271 4.059619 31.365622 -2.871232
2007-03-14 07:59:25 51°13.598 2°56.093 16.3401 4.059619 31.365622 -2.871232
2007-03-14 07:59:30 51°13.598 2°56.093 16.3289 4.059619 31.36632 -2.871232
2007-03-14 07:59:35 51°13.598 2°56.093 16.3325 4.059619 31.367018 -2.871232
2007-03-14 07:59:40 51°13.598 2°56.093 16.3382 4.059515 31.366125 -2.871232
2007-03-14 07:59:45 51°13.599 2°56.094 16.3378 4.059515 31.366125 -2.871232
2007-03-14 07:59:50 51°13.599 2°56.094 16.332 4.059515 31.366125 -2.871232
2007-03-14 07:59:55 51°13.599 2°56.094 16.3195 4.059411 31.36593 -2.871232
2007-03-14 08:00:00 51°13.599 2°56.094 16.3182 4.059411 31.36593 -2.871232
2007-03-14 08:00:05 51°13.599 2°56.094 16.3102 4.059308 31.365735 -2.871232
2007-03-14 08:00:10 51°13.599 2°56.094 16.3193 4.059308 31.366433 -2.871232
2007-03-14 08:00:15 51°13.599 2°56.094 16.3232 4.059308 31.366433 -2.871232
2007-03-14 08:00:20 51°13.599 2°56.094 16.332 4.059308 31.366433 -2.871232
2007-03-14 08:00:25 51°13.599 2°56.094 16.3365 4.059204 31.366238 -2.871232
2007-03-14 08:00:30 51°13.599 2°56.094 16.3389 4.059204 31.366238 -2.871232
2007-03-14 08:00:35 51°13.599 2°56.094 16.3388 4.0591 31.366043 -2.871232
2007-03-14 08:00:40 51°13.599 2°56.094 16.3398 4.0591 31.366741 -2.871232
2007-03-14 08:00:45 51°13.599 2°56.094 16.339 4.058997 31.365848 -2.871232
2007-03-14 08:00:50 51°13.599 2°56.094 16.3374 4.058997 31.366546 -2.871232
2007-03-14 08:00:55 51°13.599 2°56.094 16.34 4.058997 31.366546 -2.871232
2007-03-14 08:01:00 51°13.599 2°56.094 16.3414 4.058893 31.366352 -2.871232
2007-03-14 08:01:05 51°13.599 2°56.094 16.3423 4.058893 31.36705 -2.871232
2007-03-14 08:01:10 51°13.599 2°56.094 16.3427 4.058893 31.36705 -2.871232
2007-03-14 08:01:15 51°13.599 2°56.094 16.3423 4.058789 31.366157 -2.871232
2007-03-14 08:01:20 51°13.599 2°56.094 16.3388 4.058789 31.366855 -2.871232
2007-03-14 08:01:25 51°13.599 2°56.094 16.3355 4.058789 31.366855 -2.871232
2007-03-14 08:01:30 51°13.599 2°56.094 16.3373 4.058685 31.365962 -2.871232
2007-03-14 08:01:35 51°13.599 2°56.094 16.3362 4.058685 31.36666 -2.871232
2007-03-14 08:01:40 51°13.599 2°56.094 16.3354 4.058582 31.366465 -2.871232
2007-03-14 08:01:45 51°13.599 2°56.094 16.3316 4.058582 31.366465 -2.871232
2007-03-14 08:01:50 51°13.599 2°56.094 16.3304 4.058582 31.366465 -2.871232
2007-03-14 08:01:55 51°13.599 2°56.094 16.3311 4.058478 31.36627 -2.871232
2007-03-14 08:02:00 51°13.598 2°56.094 16.3325 4.058478 31.366968 -2.871232
2007-03-14 08:02:05 51°13.598 2°56.094 16.3351 4.058374 31.366075 -2.871232
2007-03-14 08:02:10 51°13.598 2°56.094 16.3372 4.058374 31.366773 -2.871232
2007-03-14 08:02:15 51°13.598 2°56.094 16.3385 4.058374 31.366773 -2.871232
2007-03-14 08:02:20 51°13.598 2°56.094 16.3399 4.058374 31.366773 -2.871232
2007-03-14 08:02:25 51°13.598 2°56.094 16.3421 4.058271 31.366578 -2.871232
2007-03-14 08:02:30 51°13.598 2°56.094 16.3428 4.058271 31.367277 -2.871232
2007-03-14 08:02:35 51°13.598 2°56.094 16.3445 4.058167 31.366383 -2.871232
2007-03-14 08:02:40 51°13.598 2°56.094 16.3452 4.058167 31.367082 -2.871232
2007-03-14 08:02:45 51°13.598 2°56.094 16.3452 4.058063 31.366189 -2.871232
2007-03-14 08:02:50 51°13.598 2°56.094 16.3448 4.058063 31.366189 -2.871232
2007-03-14 08:02:55 51°13.598 2°56.094 16.3452 4.058063 31.366887 -2.871232
2007-03-14 08:03:00 51°13.599 2°56.094 16.3449 4.058063 31.367586 -2.871232
2007-03-14 08:03:05 51°13.599 2°56.095 16.343 4.05796 31.366692 -2.871232
2007-03-14 08:03:10 51°13.598 2°56.095 16.3435 4.05796 31.367391 -2.871232
2007-03-14 08:03:15 51°13.598 2°56.095 16.3435 4.057856 31.366497 -2.871232
2007-03-14 08:03:20 51°13.598 2°56.095 16.3439 4.057856 31.366497 -2.871232
2007-03-14 08:03:25 51°13.598 2°56.095 16.3436 4.057856 31.367196 -2.871232
2007-03-14 08:03:30 51°13.598 2°56.095 16.3432 4.057752 31.367001 -2.871232
2007-03-14 08:03:35 51°13.598 2°56.094 16.343 4.057752 31.367001 -2.871232
2007-03-14 08:03:40 51°13.598 2°56.095 16.3436 4.057649 31.366806 -2.871232
2007-03-14 08:03:45 51°13.598 2°56.095 16.3436 4.057649 31.366806 -2.871232
2007-03-14 08:03:50 51°13.598 2°56.095 16.3443 4.057545 31.366611 -2.871232
2007-03-14 08:03:55 51°13.598 2°56.095 16.3442 4.057545 31.366611 -2.871232
2007-03-14 08:04:00 51°13.598 2°56.095 16.3437 4.057545 31.367309 -2.871232
2007-03-14 08:04:05 51°13.598 2°56.095 16.3413 4.057441 31.366416 -2.871232
2007-03-14 08:04:10 51°13.599 2°56.095 16.3419 4.057441 31.367114 -2.871232
2007-03-14 08:04:15 51°13.599 2°56.095 16.3439 4.057441 31.367114 -2.871232
2007-03-14 08:04:20 51°13.599 2°56.095 16.3467 4.057441 31.367114 -2.871232
2007-03-14 08:04:25 51°13.599 2°56.095 16.3461 4.057338 31.366919 -2.871232
2007-03-14 08:04:30 51°13.599 2°56.095 16.3464 4.057338 31.367618 -2.871232
2007-03-14 08:04:35 51°13.599 2°56.095 16.3452 4.057234 31.366724 -2.871232
2007-03-14 08:04:40 51°13.599 2°56.095 16.3465 4.057234 31.367423 -2.871232
2007-03-14 08:04:45 51°13.599 2°56.095 16.3496 4.05713 31.366529 -2.871232
2007-03-14 08:04:50 51°13.599 2°56.095 16.3497 4.05713 31.366529 -2.871232
2007-03-14 08:04:55 51°13.599 2°56.095 16.3518 4.05713 31.367228 -2.871232
2007-03-14 08:05:00 51°13.599 2°56.095 16.3529 4.057027 31.367033 -2.871232
2007-03-14 08:05:05 51°13.599 2°56.095 16.3548 4.057027 31.367033 -2.871232
2007-03-14 08:05:10 51°13.599 2°56.095 16.3565 4.057027 31.367732 -2.871232
2007-03-14 08:05:15 51°13.599 2°56.095 16.3552 4.056923 31.366838 -2.871232
2007-03-14 08:05:20 51°13.599 2°56.095 16.3563 4.056923 31.366838 -2.871232
2007-03-14 08:05:25 51°13.599 2°56.096 16.3576 4.056819 31.366643 -2.871232
2007-03-14 08:05:30 51°13.599 2°56.096 16.3581 4.056819 31.367342 -2.871232
2007-03-14 08:05:35 51°13.599 2°56.095 16.3585 4.056819 31.367342 -2.871232
2007-03-14 08:05:40 51°13.599 2°56.095 16.3588 4.056716 31.366448 -2.871232
2007-03-14 08:05:45 51°13.599 2°56.095 16.3601 4.056716 31.367147 -2.871232
2007-03-14 08:05:50 51°13.599 2°56.095 16.3591 4.056612 31.366952 -2.871232
2007-03-14 08:05:55 51°13.599 2°56.095 16.3608 4.056612 31.366952 -2.871232
2007-03-14 08:06:00 51°13.599 2°56.095 16.361 4.056612 31.366952 -2.871232
2007-03-14 08:06:05 51°13.599 2°56.095 16.36 4.056508 31.366757 -2.871232
2007-03-14 08:06:10 51°13.598 2°56.095 16.3623 4.056508 31.367456 -2.871232
2007-03-14 08:06:15 51°13.598 2°56.095 16.3604 4.056405 31.366562 -2.871232
2007-03-14 08:06:20 51°13.598 2°56.095 16.361 4.056405 31.367261 -2.871232
2007-03-14 08:06:25 51°13.598 2°56.095 16.3613 4.056405 31.367261 -2.871232
2007-03-14 08:06:30 51°13.598 2°56.095 16.3586 4.056405 31.367261 -2.871232
2007-03-14 08:06:35 51°13.597 2°56.094 16.3588 4.056301 31.366367 -2.871232
2007-03-14 08:06:40 51°13.597 2°56.094 16.3603 4.056301 31.367066 -2.871232
2007-03-14 08:06:45 51°13.597 2°56.094 16.3593 4.056197 31.366871 -2.871232
2007-03-14 08:06:50 51°13.597 2°56.094 16.3598 4.056197 31.366871 -2.871232
2007-03-14 08:06:55 51°13.597 2°56.094 16.361 4.056197 31.366871 -2.871232
2007-03-14 08:07:00 51°13.597 2°56.094 16.3622 4.056094 31.366676 -2.871232
2007-03-14 08:07:05 51°13.597 2°56.094 16.3621 4.056094 31.367375 -2.871232
2007-03-14 08:07:10 51°13.597 2°56.094 16.3628 4.056094 31.367375 -2.871232
2007-03-14 08:07:15 51°13.597 2°56.094 16.362 4.05599 31.36718 -2.871232
2007-03-14 08:07:20 51°13.597 2°56.094 16.3628 4.05599 31.36718 -2.871232
2007-03-14 08:07:25 51°13.597 2°56.094 16.3632 4.05599 31.36718 -2.871232
2007-03-14 08:07:30 51°13.597 2°56.094 16.3644 4.055886 31.366985 -2.871232
2007-03-14 08:07:35 51°13.597 2°56.094 16.3653 4.055886 31.367684 -2.871232
2007-03-14 08:07:40 51°13.597 2°56.094 16.3648 4.055783 31.36679 -2.871232
2007-03-14 08:07:45 51°13.597 2°56.094 16.3652 4.055783 31.36679 -2.871232
2007-03-14 08:07:50 51°13.597 2°56.094 16.3646 4.055783 31.36679 -2.871232
2007-03-14 08:07:55 51°13.597 2°56.094 16.3663 4.055679 31.366595 -2.871232
2007-03-14 08:08:00 51°13.597 2°56.094 16.3664 4.055679 31.367294 -2.871232
2007-03-14 08:08:05 51°13.597 2°56.094 16.3663 4.055679 31.367294 -2.871232
2007-03-14 08:08:10 51°13.597 2°56.094 16.3676 4.055575 31.367099 -2.871232
2007-03-14 08:08:15 51°13.597 2°56.094 16.3687 4.055575 31.367798 -2.871232
2007-03-14 08:08:20 51°13.597 2°56.094 16.3685 4.055575 31.367798 -2.871232
2007-03-14 08:08:25 51°13.597 2°56.094 16.3679 4.055471 31.366904 -2.871232
2007-03-14 08:08:30 51°13.597 2°56.094 16.3673 4.055471 31.367603 -2.871232
2007-03-14 08:08:35 51°13.597 2°56.094 16.3697 4.055368 31.366709 -2.871232
2007-03-14 08:08:40 51°13.597 2°56.094 16.3716 4.055368 31.367408 -2.871232
2007-03-14 08:08:45 51°13.597 2°56.093 16.3712 4.055264 31.367213 -2.871232
2007-03-14 08:08:50 51°13.597 2°56.093 16.3741 4.055264 31.367213 -2.871232
2007-03-14 08:08:55 51°13.597 2°56.093 16.3777 4.055264 31.367213 -2.871232
2007-03-14 08:09:00 51°13.597 2°56.093 16.3784 4.05516 31.367018 -2.871232
2007-03-14 08:09:05 51°13.597 2°56.093 16.3784 4.05516 31.367018 -2.871232
2007-03-14 08:09:10 51°13.597 2°56.093 16.3815 4.05516 31.367717 -2.871232
2007-03-14 08:09:15 51°13.597 2°56.093 16.382 4.055057 31.366823 -2.871232
2007-03-14 08:09:20 51°13.597 2°56.093 16.3825 4.055057 31.367523 -2.871232
2007-03-14 08:09:25 51°13.597 2°56.093 16.3809 4.055057 31.367523 -2.871232
2007-03-14 08:09:30 51°13.597 2°56.093 16.3839 4.054953 31.366628 -2.871232
2007-03-14 08:09:35 51°13.597 2°56.093 16.3827 4.054953 31.367328 -2.871232
2007-03-14 08:09:40 51°13.597 2°56.093 16.384 4.054849 31.366433 -2.871232
2007-03-14 08:09:45 51°13.597 2°56.093 16.3812 4.054849 31.367133 -2.871232
2007-03-14 08:09:50 51°13.597 2°56.093 16.3793 4.054849 31.367133 -2.871232
2007-03-14 08:09:55 51°13.597 2°56.093 16.3833 4.054746 31.366938 -2.871232
2007-03-14 08:10:00 51°13.597 2°56.093 16.3826 4.054746 31.366938 -2.871232
2007-03-14 08:10:05 51°13.597 2°56.093 16.3845 4.054746 31.367637 -2.871232
2007-03-14 08:10:10 51°13.597 2°56.093 16.3825 4.054642 31.366743 -2.871232
2007-03-14 08:10:15 51°13.597 2°56.093 16.3849 4.054642 31.367442 -2.871232
2007-03-14 08:10:20 51°13.597 2°56.093 16.3821 4.054642 31.367442 -2.871232
2007-03-14 08:10:25 51°13.597 2°56.093 16.3844 4.054642 31.367442 -2.871232
2007-03-14 08:10:30 51°13.597 2°56.093 16.3846 4.054538 31.367247 -2.871232
2007-03-14 08:10:35 51°13.597 2°56.093 16.3842 4.054538 31.367946 -2.871232
2007-03-14 08:10:40 51°13.597 2°56.093 16.3861 4.054435 31.367052 -2.871232
2007-03-14 08:10:45 51°13.597 2°56.093 16.385 4.054435 31.367751 -2.871232
2007-03-14 08:10:50 51°13.597 2°56.093 16.3867 4.054435 31.367751 -2.871232
2007-03-14 08:10:55 51°13.597 2°56.093 16.3847 4.054331 31.366857 -2.871232
2007-03-14 08:11:00 51°13.597 2°56.093 16.3862 4.054331 31.367556 -2.871232
2007-03-14 08:11:05 51°13.597 2°56.093 16.3856 4.054227 31.366662 -2.871232
2007-03-14 08:11:10 51°13.597 2°56.093 16.3869 4.054227 31.367361 -2.871232
2007-03-14 08:11:15 51°13.597 2°56.093 16.3867 4.054227 31.367361 -2.871232
2007-03-14 08:11:20 51°13.597 2°56.093 16.3885 4.054227 31.367361 -2.871232
2007-03-14 08:11:25 51°13.597 2°56.093 16.3883 4.054124 31.367166 -2.871232
2007-03-14 08:11:30 51°13.597 2°56.093 16.3867 4.054124 31.367866 -2.871232
2007-03-14 08:11:35 51°13.597 2°56.093 16.3863 4.05402 31.366971 -2.871232
2007-03-14 08:11:40 51°13.597 2°56.093 16.387 4.05402 31.367671 -2.871232
2007-03-14 08:11:45 51°13.597 2°56.094 16.3884 4.05402 31.367671 -2.871232
2007-03-14 08:11:50 51°13.598 2°56.093 16.388 4.053916 31.366776 -2.871232
2007-03-14 08:11:55 51°13.598 2°56.094 16.3891 4.053916 31.366776 -2.871232
2007-03-14 08:12:00 51°13.598 2°56.094 16.3885 4.053916 31.367476 -2.871232
2007-03-14 08:12:05 51°13.598 2°56.094 16.3896 4.053813 31.367281 -2.871232
2007-03-14 08:12:10 51°13.598 2°56.094 16.3896 4.053813 31.36798 -2.871232
2007-03-14 08:12:15 51°13.598 2°56.094 16.3892 4.053709 31.367086 -2.871232
2007-03-14 08:12:20 51°13.598 2°56.094 16.3906 4.053709 31.367086 -2.871232
2007-03-14 08:12:25 51°13.598 2°56.094 16.3906 4.053709 31.367086 -2.871232
2007-03-14 08:12:30 51°13.598 2°56.094 16.3927 4.053709 31.367785 -2.871232
2007-03-14 08:12:35 51°13.598 2°56.094 16.3919 4.053605 31.36759 -2.871232
2007-03-14 08:12:40 51°13.598 2°56.094 16.3933 4.053605 31.36759 -2.871232
2007-03-14 08:12:45 51°13.598 2°56.094 16.3934 4.053502 31.367395 -2.871232
2007-03-14 08:12:50 51°13.598 2°56.094 16.3927 4.053502 31.367395 -2.871232
2007-03-14 08:12:55 51°13.598 2°56.094 16.3911 4.053502 31.367395 -2.871232
2007-03-14 08:13:00 51°13.598 2°56.094 16.3908 4.053502 31.368095 -2.871232
2007-03-14 08:13:05 51°13.598 2°56.094 16.3933 4.053398 31.3672 -2.871232
2007-03-14 08:13:10 51°13.598 2°56.094 16.3962 4.053398 31.3679 -2.871232
2007-03-14 08:13:15 51°13.598 2°56.094 16.3972 4.053294 31.367005 -2.871232
2007-03-14 08:13:20 51°13.598 2°56.094 16.399 4.053294 31.367005 -2.871232
2007-03-14 08:13:25 51°13.598 2°56.094 16.3989 4.053294 31.367705 -2.871232
2007-03-14 08:13:30 51°13.598 2°56.094 16.3996 4.053294 31.368404 -2.871232
2007-03-14 08:13:35 51°13.598 2°56.094 16.3978 4.053191 31.36751 -2.871232
2007-03-14 08:13:40 51°13.598 2°56.094 16.3989 4.053191 31.36751 -2.871232
2007-03-14 08:13:45 51°13.598 2°56.093 16.399 4.053087 31.367315 -2.871232
2007-03-14 08:13:50 51°13.598 2°56.093 16.3989 4.053087 31.368014 -2.871232
2007-03-14 08:13:55 51°13.598 2°56.093 16.3992 4.053087 31.368014 -2.871232
2007-03-14 08:14:00 51°13.598 2°56.093 16.3992 4.052983 31.36712 -2.871232
2007-03-14 08:14:05 51°13.598 2°56.093 16.3997 4.052983 31.367819 -2.871232
2007-03-14 08:14:10 51°13.597 2°56.093 16.3986 4.052983 31.367819 -2.871232
2007-03-14 08:14:15 51°13.597 2°56.093 16.3993 4.05288 31.367624 -2.871232
2007-03-14 08:14:20 51°13.597 2°56.093 16.3994 4.05288 31.367624 -2.871232
2007-03-14 08:14:25 51°13.597 2°56.093 16.398 4.05288 31.367624 -2.871232
2007-03-14 08:14:30 51°13.597 2°56.093 16.3989 4.052776 31.367429 -2.871232
2007-03-14 08:14:35 51°13.597 2°56.093 16.3964 4.052776 31.367429 -2.871232
2007-03-14 08:14:40 51°13.597 2°56.093 16.3983 4.052776 31.368129 -2.871232
2007-03-14 08:14:45 51°13.598 2°56.093 16.395 4.052672 31.367235 -2.871232
2007-03-14 08:14:50 51°13.598 2°56.093 16.3978 4.052672 31.367235 -2.871232
2007-03-14 08:14:55 51°13.598 2°56.093 16.3982 4.052672 31.367934 -2.871232
2007-03-14 08:15:00 51°13.598 2°56.093 16.4009 4.052569 31.36704 -2.871232
2007-03-14 08:15:05 51°13.598 2°56.093 16.401 4.052569 31.367739 -2.871232
2007-03-14 08:15:10 51°13.598 2°56.093 16.4026 4.052569 31.368439 -2.871232
2007-03-14 08:15:15 51°13.598 2°56.093 16.4033 4.052465 31.367544 -2.871232
2007-03-14 08:15:20 51°13.598 2°56.094 16.4059 4.052465 31.367544 -2.871232
2007-03-14 08:15:25 51°13.598 2°56.094 16.4067 4.052465 31.367544 -2.871232
2007-03-14 08:15:30 51°13.598 2°56.094 16.4081 4.052361 31.367349 -2.871232
2007-03-14 08:15:35 51°13.598 2°56.094 16.4075 4.052361 31.368049 -2.871232
2007-03-14 08:15:40 51°13.598 2°56.094 16.409 4.052361 31.368049 -2.871232
2007-03-14 08:15:45 51°13.598 2°56.094 16.4087 4.052257 31.367854 -2.871232
2007-03-14 08:15:50 51°13.598 2°56.094 16.4079 4.052257 31.367854 -2.871232
2007-03-14 08:15:55 51°13.598 2°56.094 16.4088 4.052257 31.367854 -2.871232
2007-03-14 08:16:00 51°13.598 2°56.093 16.4062 4.052154 31.367659 -2.871232
2007-03-14 08:16:05 51°13.599 2°56.094 16.4087 4.052154 31.367659 -2.871232
2007-03-14 08:16:10 51°13.599 2°56.094 16.4107 4.05205 31.367464 -2.871232
2007-03-14 08:16:15 51°13.599 2°56.094 16.4127 4.05205 31.367464 -2.871232
2007-03-14 08:16:20 51°13.599 2°56.093 16.416 4.05205 31.367464 -2.871232
2007-03-14 08:16:25 51°13.599 2°56.093 16.416 4.05205 31.368164 -2.871232
2007-03-14 08:16:30 51°13.599 2°56.093 16.4199 4.051946 31.367269 -2.871232
2007-03-14 08:16:35 51°13.599 2°56.093 16.4181 4.051946 31.367969 -2.871232
2007-03-14 08:16:40 51°13.599 2°56.093 16.4202 4.051843 31.367074 -2.871232
2007-03-14 08:16:45 51°13.599 2°56.093 16.4159 4.051843 31.367774 -2.871232
2007-03-14 08:16:50 51°13.599 2°56.093 16.4179 4.051739 31.366879 -2.871232
2007-03-14 08:16:55 51°13.599 2°56.093 16.4175 4.051739 31.366879 -2.871232
2007-03-14 08:17:00 51°13.599 2°56.093 16.4185 4.051739 31.367579 -2.871232
2007-03-14 08:17:05 51°13.599 2°56.093 16.4192 4.051739 31.367579 -2.871232
2007-03-14 08:17:10 51°13.599 2°56.094 16.4176 4.051635 31.367384 -2.871232
2007-03-14 08:17:15 51°13.599 2°56.094 16.4162 4.051635 31.367384 -2.871232
2007-03-14 08:17:20 51°13.599 2°56.094 16.4141 4.051635 31.368084 -2.871232
2007-03-14 08:17:25 51°13.599 2°56.094 16.4165 4.051635 31.368084 -2.871232
2007-03-14 08:17:30 51°13.599 2°56.094 16.4179 4.051532 31.367189 -2.871232
2007-03-14 08:17:35 51°13.599 2°56.094 16.4204 4.051532 31.367889 -2.871232
2007-03-14 08:17:40 51°13.598 2°56.094 16.4193 4.051428 31.367694 -2.871232
2007-03-14 08:17:45 51°13.598 2°56.094 16.4225 4.051428 31.367694 -2.871232
2007-03-14 08:17:50 51°13.598 2°56.094 16.4234 4.051428 31.367694 -2.871232
2007-03-14 08:17:55 51°13.598 2°56.094 16.4268 4.051428 31.368394 -2.871232
2007-03-14 08:18:00 51°13.598 2°56.094 16.4268 4.051324 31.367499 -2.871232
2007-03-14 08:18:05 51°13.598 2°56.094 16.4282 4.051324 31.368199 -2.871232
2007-03-14 08:18:10 51°13.598 2°56.094 16.4291 4.051324 31.368199 -2.871232
2007-03-14 08:18:15 51°13.598 2°56.094 16.4299 4.051221 31.368004 -2.871232
2007-03-14 08:18:20 51°13.598 2°56.094 16.4312 4.051221 31.368004 -2.871232
2007-03-14 08:18:25 51°13.598 2°56.094 16.4318 4.051221 31.368004 -2.871232
2007-03-14 08:18:30 51°13.598 2°56.094 16.4302 4.051221 31.368704 -2.871232
2007-03-14 08:18:35 51°13.598 2°56.094 16.4281 4.051117 31.367809 -2.871232
2007-03-14 08:18:40 51°13.598 2°56.094 16.4303 4.051013 31.367614 -2.871232
2007-03-14 08:18:45 51°13.598 2°56.094 16.4241 4.051013 31.367614 -2.871232
2007-03-14 08:18:50 51°13.598 2°56.094 16.426 4.051013 31.368314 -2.871232
2007-03-14 08:18:55 51°13.598 2°56.094 16.4248 4.051013 31.368314 -2.871232
2007-03-14 08:19:00 51°13.597 2°56.094 16.4255 4.05091 31.367419 -2.871232
2007-03-14 08:19:05 51°13.597 2°56.094 16.421 4.05091 31.368119 -2.871232
2007-03-14 08:19:10 51°13.597 2°56.094 16.4187 4.05091 31.368119 -2.871232
2007-03-14 08:19:15 51°13.597 2°56.094 16.4217 4.050806 31.367924 -2.871232
2007-03-14 08:19:20 51°13.597 2°56.094 16.42 4.050806 31.367924 -2.871232
2007-03-14 08:19:25 51°13.597 2°56.094 16.4237 4.050806 31.367924 -2.871232
2007-03-14 08:19:30 51°13.597 2°56.094 16.4218 4.050702 31.367729 -2.871232
2007-03-14 08:19:35 51°13.597 2°56.094 16.4222 4.050702 31.368429 -2.871232
2007-03-14 08:19:40 51°13.597 2°56.094 16.4229 4.050702 31.368429 -2.871232
2007-03-14 08:19:45 51°13.597 2°56.094 16.4189 4.050599 31.367534 -2.871232
2007-03-14 08:19:50 51°13.597 2°56.094 16.4224 4.050599 31.368234 -2.871232
2007-03-14 08:19:55 51°13.597 2°56.094 16.4209 4.050599 31.368234 -2.871232
2007-03-14 08:20:00 51°13.597 2°56.094 16.4227 4.050495 31.367339 -2.871232
2007-03-14 08:20:05 51°13.597 2°56.094 16.4212 4.050495 31.368039 -2.871232
2007-03-14 08:20:10 51°13.597 2°56.094 16.4241 4.050495 31.368039 -2.871232
2007-03-14 08:20:15 51°13.597 2°56.094 16.4223 4.050391 31.367844 -2.871232
2007-03-14 08:20:20 51°13.597 2°56.094 16.4224 4.050391 31.368544 -2.871232
2007-03-14 08:20:25 51°13.597 2°56.094 16.4239 4.050391 31.368544 -2.871232
2007-03-14 08:20:30 51°13.597 2°56.094 16.4238 4.050288 31.367649 -2.871232
2007-03-14 08:20:35 51°13.597 2°56.094 16.4265 4.050288 31.368349 -2.871232
2007-03-14 08:20:40 51°13.597 2°56.093 16.4264 4.050288 31.368349 -2.871232
2007-03-14 08:20:45 51°13.597 2°56.093 16.4282 4.050184 31.368154 -2.871232
2007-03-14 08:20:50 51°13.597 2°56.093 16.427 4.050184 31.368154 -2.871232
2007-03-14 08:20:55 51°13.597 2°56.093 16.4326 4.050184 31.368154 -2.871232
2007-03-14 08:21:00 51°13.597 2°56.093 16.433 4.050184 31.368855 -2.871232
2007-03-14 08:21:05 51°13.597 2°56.093 16.4367 4.05008 31.367959 -2.871232
2007-03-14 08:21:10 51°13.597 2°56.093 16.4393 4.05008 31.36866 -2.871232
2007-03-14 08:21:15 51°13.597 2°56.093 16.4383 4.049977 31.367764 -2.871232
2007-03-14 08:21:20 51°13.597 2°56.093 16.4426 4.049977 31.367764 -2.871232
2007-03-14 08:21:25 51°13.597 2°56.093 16.439 4.049977 31.368465 -2.871232
2007-03-14 08:21:30 51°13.597 2°56.093 16.4417 4.049977 31.369165 -2.871232
2007-03-14 08:21:35 51°13.597 2°56.093 16.4411 4.049873 31.36827 -2.871232
2007-03-14 08:21:40 51°13.597 2°56.093 16.4432 4.049873 31.36827 -2.871232
2007-03-14 08:21:45 51°13.597 2°56.093 16.4424 4.049769 31.368075 -2.871232
2007-03-14 08:21:50 51°13.597 2°56.093 16.4447 4.049769 31.368075 -2.871232
2007-03-14 08:21:55 51°13.597 2°56.093 16.4456 4.049769 31.368775 -2.871232
2007-03-14 08:22:00 51°13.598 2°56.093 16.4456 4.049769 31.368775 -2.871232
2007-03-14 08:22:05 51°13.598 2°56.093 16.4478 4.049666 31.36788 -2.871232
2007-03-14 08:22:10 51°13.598 2°56.093 16.4471 4.049666 31.36858 -2.871232
2007-03-14 08:22:15 51°13.598 2°56.093 16.4495 4.049666 31.36928 -2.871232
2007-03-14 08:22:20 51°13.598 2°56.093 16.4497 4.049666 31.36928 -2.871232
2007-03-14 08:22:25 51°13.598 2°56.093 16.4516 4.049562 31.368385 -2.871232
2007-03-14 08:22:30 51°13.598 2°56.093 16.4503 4.049562 31.369085 -2.871232
2007-03-14 08:22:35 51°13.598 2°56.093 16.4544 4.049458 31.36819 -2.871232
2007-03-14 08:22:40 51°13.598 2°56.093 16.4543 4.049458 31.36889 -2.871232
2007-03-14 08:22:45 51°13.598 2°56.093 16.456 4.049458 31.36889 -2.871232
2007-03-14 08:22:50 51°13.598 2°56.093 16.4553 4.049355 31.368695 -2.871232
2007-03-14 08:22:55 51°13.598 2°56.093 16.4554 4.049355 31.368695 -2.871232
2007-03-14 08:23:00 51°13.598 2°56.093 16.4566 4.049355 31.368695 -2.871232
2007-03-14 08:23:05 51°13.599 2°56.093 16.456 4.049251 31.368501 -2.871232
2007-03-14 08:23:10 51°13.599 2°56.093 16.4569 4.049251 31.369201 -2.871232
2007-03-14 08:23:15 51°13.599 2°56.093 16.4561 4.049251 31.369201 -2.871232
2007-03-14 08:23:20 51°13.599 2°56.093 16.4577 4.049147 31.369006 -2.871232
2007-03-14 08:23:25 51°13.599 2°56.093 16.4581 4.049147 31.369006 -2.871232
2007-03-14 08:23:30 51°13.599 2°56.093 16.4589 4.049147 31.369006 -2.871232
2007-03-14 08:23:35 51°13.599 2°56.093 16.4599 4.049147 31.369706 -2.871232
2007-03-14 08:23:40 51°13.599 2°56.093 16.4586 4.049044 31.368811 -2.871232
2007-03-14 08:23:45 51°13.599 2°56.093 16.4612 4.049044 31.369511 -2.871232
2007-03-14 08:23:50 51°13.599 2°56.093 16.4572 4.049044 31.369511 -2.871232
2007-03-14 08:23:55 51°13.599 2°56.093 16.4607 4.04894 31.369317 -2.871232
2007-03-14 08:24:00 51°13.599 2°56.093 16.4591 4.04894 31.369317 -2.871232
2007-03-14 08:24:05 51°13.599 2°56.093 16.4606 4.04894 31.369317 -2.871232
2007-03-14 08:24:10 51°13.599 2°56.093 16.4613 4.048836 31.369122 -2.871232
2007-03-14 08:24:15 51°13.599 2°56.094 16.4622 4.048836 31.369822 -2.871232
2007-03-14 08:24:20 51°13.599 2°56.094 16.4633 4.048836 31.369822 -2.871232
2007-03-14 08:24:25 51°13.599 2°56.094 16.4634 4.048733 31.368927 -2.871232
2007-03-14 08:24:30 51°13.599 2°56.094 16.4644 4.048733 31.369627 -2.871232
2007-03-14 08:24:35 51°13.599 2°56.094 16.4638 4.048733 31.369627 -2.871232
2007-03-14 08:24:40 51°13.599 2°56.094 16.4658 4.048733 31.370328 -2.871232
2007-03-14 08:24:45 51°13.599 2°56.094 16.4646 4.048629 31.369432 -2.871232
2007-03-14 08:24:50 51°13.599 2°56.094 16.468 4.048629 31.370133 -2.871232
2007-03-14 08:24:55 51°13.599 2°56.094 16.4679 4.048629 31.370133 -2.871232
2007-03-14 08:25:00 51°13.599 2°56.094 16.4709 4.048629 31.370133 -2.871232
2007-03-14 08:25:05 51°13.6 2°56.094 16.4716 4.048525 31.369938 -2.871232
2007-03-14 08:25:10 51°13.6 2°56.094 16.4738 4.048525 31.370638 -2.871232
2007-03-14 08:25:15 51°13.6 2°56.094 16.4743 4.048421 31.369743 -2.871232
2007-03-14 08:25:20 51°13.6 2°56.094 16.4757 4.048421 31.369743 -2.871232
2007-03-14 08:25:25 51°13.6 2°56.094 16.4775 4.048421 31.369743 -2.871232
2007-03-14 08:25:30 51°13.6 2°56.094 16.4779 4.048422 31.370444 -2.871232
2007-03-14 08:25:35 51°13.6 2°56.094 16.4794 4.048318 31.369548 -2.871232
2007-03-14 08:25:40 51°13.6 2°56.094 16.4799 4.048318 31.370249 -2.871232
2007-03-14 08:25:45 51°13.6 2°56.094 16.4811 4.048318 31.370249 -2.871232
2007-03-14 08:25:50 51°13.6 2°56.094 16.4792 4.048318 31.370249 -2.871232
2007-03-14 08:25:55 51°13.6 2°56.094 16.4803 4.048214 31.370054 -2.871232
2007-03-14 08:26:00 51°13.6 2°56.094 16.4799 4.048214 31.370054 -2.871232
2007-03-14 08:26:05 51°13.6 2°56.094 16.4812 4.04811 31.369859 -2.871232
2007-03-14 08:26:10 51°13.6 2°56.095 16.4814 4.04811 31.369859 -2.871232
2007-03-14 08:26:15 51°13.6 2°56.095 16.4813 4.04811 31.370559 -2.871232
2007-03-14 08:26:20 51°13.6 2°56.095 16.4835 4.048007 31.369664 -2.871232
2007-03-14 08:26:25 51°13.6 2°56.095 16.4832 4.048007 31.369664 -2.871232
2007-03-14 08:26:30 51°13.6 2°56.095 16.4843 4.048007 31.370364 -2.871232
2007-03-14 08:26:35 51°13.6 2°56.094 16.4852 4.047903 31.369469 -2.871232
2007-03-14 08:26:40 51°13.6 2°56.094 16.4853 4.047903 31.37017 -2.871232
2007-03-14 08:26:45 51°13.6 2°56.094 16.4839 4.047903 31.37017 -2.871232
2007-03-14 08:26:50 51°13.6 2°56.094 16.4827 4.047903 31.37017 -2.871232
2007-03-14 08:26:55 51°13.6 2°56.094 16.4851 4.047799 31.369975 -2.871232
2007-03-14 08:27:00 51°13.6 2°56.094 16.4818 4.047799 31.369975 -2.871232
2007-03-14 08:27:05 51°13.6 2°56.094 16.4874 4.047799 31.370675 -2.871232
2007-03-14 08:27:10 51°13.6 2°56.094 16.4891 4.047696 31.36978 -2.871232
2007-03-14 08:27:15 51°13.6 2°56.094 16.4909 4.047696 31.37048 -2.871232
2007-03-14 08:27:20 51°13.599 2°56.094 16.4918 4.047696 31.37048 -2.871232
2007-03-14 08:27:25 51°13.599 2°56.094 16.4947 4.047592 31.369585 -2.871232
2007-03-14 08:27:30 51°13.599 2°56.094 16.4958 4.047592 31.370285 -2.871232
2007-03-14 08:27:35 51°13.599 2°56.094 16.4943 4.047592 31.370285 -2.871232
2007-03-14 08:27:40 51°13.599 2°56.094 16.497 4.047488 31.370091 -2.871232
2007-03-14 08:27:45 51°13.599 2°56.094 16.4987 4.047488 31.370091 -2.871232
2007-03-14 08:27:50 51°13.599 2°56.094 16.5005 4.047488 31.370791 -2.871232
2007-03-14 08:27:55 51°13.599 2°56.094 16.5006 4.047488 31.370791 -2.871232
2007-03-14 08:28:00 51°13.599 2°56.094 16.5 4.047385 31.369896 -2.871232
2007-03-14 08:28:05 51°13.599 2°56.095 16.5009 4.047385 31.370596 -2.871232
2007-03-14 08:28:10 51°13.599 2°56.095 16.4979 4.047385 31.370596 -2.871232
2007-03-14 08:28:15 51°13.599 2°56.095 16.4998 4.047281 31.369701 -2.871232
2007-03-14 08:28:20 51°13.599 2°56.095 16.4987 4.047281 31.370402 -2.871232
2007-03-14 08:28:25 51°13.599 2°56.095 16.5006 4.047281 31.370402 -2.871232
2007-03-14 08:28:30 51°13.599 2°56.095 16.5001 4.047281 31.371102 -2.871232
2007-03-14 08:28:35 51°13.599 2°56.095 16.502 4.047177 31.370207 -2.871232
2007-03-14 08:28:40 51°13.599 2°56.095 16.5039 4.047177 31.370207 -2.871232
2007-03-14 08:28:45 51°13.599 2°56.095 16.5043 4.047177 31.370907 -2.871232
2007-03-14 08:28:50 51°13.599 2°56.095 16.5065 4.047177 31.370907 -2.871232
2007-03-14 08:28:55 51°13.599 2°56.095 16.5062 4.047074 31.370012 -2.871232
2007-03-14 08:29:00 51°13.599 2°56.094 16.5093 4.047074 31.370713 -2.871232
2007-03-14 08:29:05 51°13.599 2°56.094 16.5084 4.047074 31.370713 -2.871232
2007-03-14 08:29:10 51°13.598 2°56.094 16.5103 4.04697 31.369817 -2.871232
2007-03-14 08:29:15 51°13.598 2°56.094 16.5102 4.04697 31.370518 -2.871232
2007-03-14 08:29:20 51°13.598 2°56.094 16.5114 4.04697 31.370518 -2.871232
2007-03-14 08:29:25 51°13.598 2°56.094 16.5113 4.046866 31.370323 -2.871232
2007-03-14 08:29:30 51°13.598 2°56.094 16.5122 4.046866 31.370323 -2.871232
2007-03-14 08:29:35 51°13.598 2°56.094 16.5131 4.046866 31.371024 -2.871232
2007-03-14 08:29:40 51°13.598 2°56.094 16.5128 4.046763 31.370128 -2.871232
2007-03-14 08:29:45 51°13.598 2°56.094 16.5142 4.046763 31.370128 -2.871232
2007-03-14 08:29:50 51°13.598 2°56.094 16.5125 4.046763 31.370829 -2.871232
2007-03-14 08:29:55 51°13.598 2°56.094 16.515 4.046763 31.370829 -2.871232
2007-03-14 08:30:00 51°13.598 2°56.094 16.5138 4.046659 31.369933 -2.871232
2007-03-14 08:30:05 51°13.598 2°56.094 16.5149 4.046659 31.370634 -2.871232
2007-03-14 08:30:10 51°13.598 2°56.094 16.5156 4.046659 31.370634 -2.871232
2007-03-14 08:30:15 51°13.598 2°56.094 16.516 4.046555 31.370439 -2.871232
2007-03-14 08:30:20 51°13.598 2°56.094 16.5181 4.046555 31.370439 -2.871232
2007-03-14 08:30:25 51°13.598 2°56.094 16.517 4.046555 31.370439 -2.871232
2007-03-14 08:30:30 51°13.598 2°56.094 16.5179 4.046555 31.37114 -2.871232
2007-03-14 08:30:35 51°13.598 2°56.094 16.5161 4.046555 31.37114 -2.871232
2007-03-14 08:30:40 51°13.598 2°56.094 16.5177 4.046452 31.370945 -2.871232
2007-03-14 08:30:45 51°13.598 2°56.094 16.5176 4.046452 31.370945 -2.871232
2007-03-14 08:30:50 51°13.598 2°56.094 16.519 4.046348 31.370049 -2.871232
2007-03-14 08:30:55 51°13.599 2°56.094 16.5176 4.046348 31.370049 -2.871232
2007-03-14 08:31:00 51°13.599 2°56.094 16.5195 4.046348 31.37075 -2.871232
2007-03-14 08:31:05 51°13.599 2°56.094 16.5195 4.046348 31.37075 -2.871232
2007-03-14 08:31:10 51°13.599 2°56.094 16.5191 4.046244 31.370555 -2.871232
2007-03-14 08:31:15 51°13.599 2°56.094 16.5205 4.046244 31.370555 -2.871232
2007-03-14 08:31:20 51°13.599 2°56.094 16.5204 4.046244 31.371256 -2.871232
2007-03-14 08:31:25 51°13.599 2°56.094 16.5227 4.046244 31.371256 -2.871232
2007-03-14 08:31:30 51°13.599 2°56.094 16.5223 4.046141 31.37036 -2.871232
2007-03-14 08:31:35 51°13.599 2°56.094 16.5239 4.046141 31.371061 -2.871232
2007-03-14 08:31:40 51°13.599 2°56.094 16.5221 4.046141 31.371061 -2.871232
2007-03-14 08:31:45 51°13.599 2°56.094 16.5232 4.046037 31.370866 -2.871232
2007-03-14 08:31:50 51°13.599 2°56.094 16.5229 4.046037 31.370866 -2.871232
2007-03-14 08:31:55 51°13.599 2°56.094 16.525 4.046037 31.370866 -2.871232
2007-03-14 08:32:00 51°13.599 2°56.094 16.5256 4.046037 31.371568 -2.871232
2007-03-14 08:32:05 51°13.599 2°56.094 16.5268 4.045933 31.370671 -2.871232
2007-03-14 08:32:10 51°13.599 2°56.094 16.5299 4.045933 31.370671 -2.871232
2007-03-14 08:32:15 51°13.599 2°56.094 16.5305 4.045933 31.371373 -2.871232
2007-03-14 08:32:20 51°13.599 2°56.094 16.5315 4.045933 31.371373 -2.871232
2007-03-14 08:32:25 51°13.599 2°56.094 16.5315 4.04583 31.370476 -2.871232
2007-03-14 08:32:30 51°13.599 2°56.094 16.5305 4.04583 31.370476 -2.871232
2007-03-14 08:32:35 51°13.599 2°56.094 16.5308 4.045726 31.370281 -2.871232
2007-03-14 08:32:40 51°13.599 2°56.094 16.5302 4.045726 31.370281 -2.871232
2007-03-14 08:32:45 51°13.599 2°56.094 16.533 4.045726 31.370983 -2.871232
2007-03-14 08:32:50 51°13.599 2°56.094 16.5312 4.045622 31.370087 -2.871232
2007-03-14 08:32:55 51°13.599 2°56.094 16.5342 4.045622 31.370087 -2.871232
2007-03-14 08:33:00 51°13.599 2°56.094 16.5332 4.045622 31.370788 -2.871232
2007-03-14 08:33:05 51°13.599 2°56.094 16.535 4.045622 31.370788 -2.871232
2007-03-14 08:33:10 51°13.599 2°56.094 16.5358 4.045622 31.371489 -2.871232
2007-03-14 08:33:15 51°13.599 2°56.094 16.5345 4.045519 31.370593 -2.871232
2007-03-14 08:33:20 51°13.599 2°56.094 16.5361 4.045519 31.371294 -2.871232
2007-03-14 08:33:25 51°13.599 2°56.094 16.5359 4.045519 31.371294 -2.871232
2007-03-14 08:33:30 51°13.599 2°56.094 16.5368 4.045519 31.371294 -2.871232
2007-03-14 08:33:35 51°13.599 2°56.094 16.538 4.045415 31.371099 -2.871232
2007-03-14 08:33:40 51°13.599 2°56.094 16.5381 4.045415 31.371099 -2.871232
2007-03-14 08:33:45 51°13.599 2°56.094 16.5398 4.045311 31.370904 -2.871232
2007-03-14 08:33:50 51°13.599 2°56.094 16.538 4.045311 31.370904 -2.871232
2007-03-14 08:33:55 51°13.599 2°56.094 16.537 4.045311 31.370904 -2.871232
2007-03-14 08:34:00 51°13.599 2°56.094 16.5346 4.045311 31.370904 -2.871232
2007-03-14 08:34:05 51°13.599 2°56.094 16.5352 4.045208 31.370709 -2.871232
2007-03-14 08:34:10 51°13.599 2°56.094 16.5373 4.045208 31.370709 -2.871232
2007-03-14 08:34:15 51°13.599 2°56.094 16.5372 4.045208 31.371411 -2.871232
2007-03-14 08:34:20 51°13.599 2°56.094 16.5378 4.045104 31.370514 -2.871232
2007-03-14 08:34:25 51°13.599 2°56.094 16.537 4.045104 31.370514 -2.871232
2007-03-14 08:34:30 51°13.599 2°56.094 16.5381 4.045104 31.371216 -2.871232
2007-03-14 08:34:35 51°13.599 2°56.094 16.5347 4.045104 31.371216 -2.871232
2007-03-14 08:34:40 51°13.599 2°56.094 16.5345 4.045 31.371021 -2.871232
2007-03-14 08:34:45 51°13.599 2°56.094 16.5359 4.045 31.371021 -2.871232
2007-03-14 08:34:50 51°13.599 2°56.094 16.5347 4.045 31.371021 -2.871232
2007-03-14 08:34:55 51°13.599 2°56.094 16.5325 4.045 31.371021 -2.871232
2007-03-14 08:35:00 51°13.599 2°56.094 16.5367 4.044897 31.370826 -2.871232
2007-03-14 08:35:05 51°13.599 2°56.094 16.5354 4.044897 31.370826 -2.871232
2007-03-14 08:35:10 51°13.599 2°56.094 16.5377 4.044897 31.371527 -2.871232
2007-03-14 08:35:15 51°13.598 2°56.094 16.5349 4.044897 31.372229 -2.871232
2007-03-14 08:35:20 51°13.598 2°56.094 16.5387 4.044793 31.371332 -2.871232
2007-03-14 08:35:25 51°13.598 2°56.094 16.5421 4.044793 31.371332 -2.871232
2007-03-14 08:35:30 51°13.598 2°56.094 16.5419 4.044793 31.371332 -2.871232
2007-03-14 08:35:35 51°13.598 2°56.094 16.545 4.044793 31.372034 -2.871232
2007-03-14 08:35:40 51°13.598 2°56.094 16.5427 4.044689 31.371137 -2.871232
2007-03-14 08:35:45 51°13.599 2°56.094 16.5442 4.044689 31.371839 -2.871232
2007-03-14 08:35:50 51°13.599 2°56.094 16.538 4.044586 31.370942 -2.871232
2007-03-14 08:35:55 51°13.599 2°56.094 16.5436 4.044586 31.370942 -2.871232
2007-03-14 08:36:00 51°13.599 2°56.094 16.539 4.044586 31.371644 -2.871232
2007-03-14 08:36:05 51°13.599 2°56.094 16.5417 4.044586 31.371644 -2.871232
2007-03-14 08:36:10 51°13.599 2°56.094 16.5422 4.044586 31.372345 -2.871232
2007-03-14 08:36:15 51°13.599 2°56.094 16.5456 4.044482 31.371449 -2.871232
2007-03-14 08:36:20 51°13.599 2°56.094 16.544 4.044482 31.372151 -2.871232
2007-03-14 08:36:25 51°13.599 2°56.094 16.5456 4.044482 31.372151 -2.871232
2007-03-14 08:36:30 51°13.599 2°56.094 16.5471 4.044378 31.371254 -2.871232
2007-03-14 08:36:35 51°13.599 2°56.094 16.5479 4.044378 31.371956 -2.871232
2007-03-14 08:36:40 51°13.599 2°56.094 16.5493 4.044378 31.371956 -2.871232
2007-03-14 08:36:45 51°13.599 2°56.095 16.5483 4.044378 31.372657 -2.871232
2007-03-14 08:36:50 51°13.599 2°56.095 16.5523 4.044378 31.372657 -2.871232
2007-03-14 08:36:55 51°13.599 2°56.095 16.5487 4.044275 31.371761 -2.871232
2007-03-14 08:37:00 51°13.599 2°56.095 16.5493 4.044275 31.371761 -2.871232
2007-03-14 08:37:05 51°13.599 2°56.094 16.5496 4.044275 31.372462 -2.871232
2007-03-14 08:37:10 51°13.599 2°56.094 16.5536 4.044171 31.371566 -2.871232
2007-03-14 08:37:15 51°13.599 2°56.094 16.5542 4.044171 31.372267 -2.871232
2007-03-14 08:37:20 51°13.599 2°56.094 16.55 4.044171 31.372267 -2.871232
2007-03-14 08:37:25 51°13.599 2°56.094 16.5533 4.044171 31.372267 -2.871232
2007-03-14 08:37:30 51°13.599 2°56.094 16.5557 4.044171 31.372969 -2.871232
2007-03-14 08:37:35 51°13.599 2°56.094 16.5549 4.044067 31.372072 -2.871232
2007-03-14 08:37:40 51°13.599 2°56.094 16.5548 4.044067 31.372072 -2.871232
2007-03-14 08:37:45 51°13.599 2°56.094 16.5585 4.043963 31.371878 -2.871232
2007-03-14 08:37:50 51°13.599 2°56.094 16.5579 4.043963 31.371878 -2.871232
2007-03-14 08:37:55 51°13.599 2°56.094 16.5584 4.043963 31.371878 -2.871232
2007-03-14 08:38:00 51°13.599 2°56.094 16.5544 4.043963 31.372579 -2.871232
2007-03-14 08:38:05 51°13.599 2°56.094 16.5597 4.04386 31.371683 -2.871232
2007-03-14 08:38:10 51°13.599 2°56.094 16.562 4.04386 31.372384 -2.871232
2007-03-14 08:38:15 51°13.599 2°56.094 16.557 4.04386 31.372384 -2.871232
2007-03-14 08:38:20 51°13.599 2°56.094 16.5615 4.043756 31.371488 -2.871232
2007-03-14 08:38:25 51°13.599 2°56.094 16.5653 4.043756 31.371488 -2.871232
2007-03-14 08:38:30 51°13.599 2°56.094 16.5596 4.043756 31.372189 -2.871232
2007-03-14 08:38:35 51°13.599 2°56.094 16.5591 4.043756 31.372189 -2.871232
2007-03-14 08:38:40 51°13.599 2°56.094 16.5599 4.043652 31.371994 -2.871232
2007-03-14 08:38:45 51°13.599 2°56.094 16.5704 4.043652 31.371994 -2.871232
2007-03-14 08:38:50 51°13.599 2°56.095 16.5685 4.043652 31.372696 -2.871232
2007-03-14 08:38:55 51°13.599 2°56.095 16.5713 4.043652 31.372696 -2.871232
2007-03-14 08:39:00 51°13.599 2°56.095 16.5839 4.043652 31.372696 -2.871232
2007-03-14 08:39:05 51°13.599 2°56.095 16.6229 4.043549 31.371799 -2.871232
2007-03-14 08:39:10 51°13.599 2°56.095 16.6433 4.043549 31.372501 -2.871232
2007-03-14 08:39:15 51°13.599 2°56.095 16.6194 4.043445 31.371605 -2.871232
2007-03-14 08:39:20 51°13.599 2°56.094 16.6552 4.043445 31.372306 -2.871232
2007-03-14 08:39:25 51°13.599 2°56.095 16.6509 4.043445 31.372306 -2.871232
2007-03-14 08:39:30 51°13.599 2°56.094 16.6444 4.043445 31.372306 -2.871232
2007-03-14 08:39:35 51°13.599 2°56.094 16.6401 4.043445 31.372306 -2.871232
2007-03-14 08:39:40 51°13.599 2°56.095 16.58 4.043341 31.372111 -2.871232
2007-03-14 08:39:45 51°13.599 2°56.094 16.6129 4.043341 31.372111 -2.871232
2007-03-14 08:39:50 51°13.599 2°56.094 16.5296 4.043341 31.372111 -2.871232
2007-03-14 08:39:55 51°13.599 2°56.094 16.5574 4.043341 31.372813 -2.871232
2007-03-14 08:40:00 51°13.599 2°56.094 16.5742 4.043238 31.371916 -2.871232
2007-03-14 08:40:05 51°13.599 2°56.095 16.5665 4.043238 31.372618 -2.871232
2007-03-14 08:40:10 51°13.599 2°56.095 16.5557 4.043238 31.372618 -2.871232
2007-03-14 08:40:15 51°13.599 2°56.095 16.5211 4.043238 31.37332 -2.871232
2007-03-14 08:40:20 51°13.599 2°56.095 16.5222 4.043238 31.37332 -2.871232
2007-03-14 08:40:25 51°13.599 2°56.095 16.636 4.043134 31.372423 -2.871232
2007-03-14 08:40:30 51°13.599 2°56.095 16.6348 4.043134 31.372423 -2.871232
2007-03-14 08:40:35 51°13.599 2°56.095 16.5881 4.04303 31.372228 -2.871232
2007-03-14 08:40:40 51°13.599 2°56.095 16.6198 4.04303 31.372228 -2.871232
2007-03-14 08:40:45 51°13.599 2°56.095 16.5669 4.04303 31.37293 -2.871232
2007-03-14 08:40:50 51°13.599 2°56.095 16.5944 4.04303 31.37293 -2.871232
2007-03-14 08:40:55 51°13.599 2°56.095 16.6172 4.04303 31.37293 -2.871232
2007-03-14 08:41:00 51°13.599 2°56.095 16.6205 4.042927 31.372033 -2.871232
2007-03-14 08:41:05 51°13.599 2°56.095 16.6128 4.042927 31.372735 -2.871232
2007-03-14 08:41:10 51°13.599 2°56.095 16.6161 4.042927 31.372735 -2.871232
2007-03-14 08:41:15 51°13.599 2°56.095 16.6435 4.042823 31.371839 -2.871232
2007-03-14 08:41:20 51°13.599 2°56.095 16.6285 4.042823 31.37254 -2.871232
2007-03-14 08:41:25 51°13.599 2°56.095 16.633 4.042823 31.37254 -2.871232
2007-03-14 08:41:30 51°13.599 2°56.095 16.6274 4.042823 31.37254 -2.871232
2007-03-14 08:41:35 51°13.599 2°56.094 16.6263 4.042719 31.372346 -2.871232
2007-03-14 08:41:40 51°13.599 2°56.094 16.6281 4.042719 31.372346 -2.871232
2007-03-14 08:41:45 51°13.599 2°56.094 16.631 4.042719 31.373047 -2.871232
2007-03-14 08:41:50 51°13.599 2°56.094 16.6291 4.042719 31.373047 -2.871232
2007-03-14 08:41:55 51°13.599 2°56.094 16.6297 4.042719 31.373047 -2.871232
2007-03-14 08:42:00 51°13.599 2°56.094 16.631 4.042616 31.372853 -2.871232
2007-03-14 08:42:05 51°13.599 2°56.094 16.6294 4.042616 31.372853 -2.871232
2007-03-14 08:42:10 51°13.599 2°56.094 16.628 4.042616 31.373555 -2.871232
2007-03-14 08:42:15 51°13.599 2°56.094 16.6289 4.042512 31.372658 -2.871232
2007-03-14 08:42:20 51°13.599 2°56.094 16.631 4.042512 31.372658 -2.871232
2007-03-14 08:42:25 51°13.599 2°56.094 16.6283 4.042512 31.372658 -2.871232
2007-03-14 08:42:30 51°13.599 2°56.094 16.6273 4.042512 31.37336 -2.871232
2007-03-14 08:42:35 51°13.599 2°56.094 16.6289 4.042408 31.372463 -2.871232
2007-03-14 08:42:40 51°13.599 2°56.094 16.6276 4.042408 31.372463 -2.871232
2007-03-14 08:42:45 51°13.599 2°56.094 16.6218 4.042408 31.373165 -2.871232
2007-03-14 08:42:50 51°13.599 2°56.094 16.6007 4.042305 31.372268 -2.871232
2007-03-14 08:42:55 51°13.599 2°56.094 16.6151 4.042305 31.372268 -2.871232
2007-03-14 08:43:00 51°13.599 2°56.093 16.62 4.042305 31.372268 -2.871232
2007-03-14 08:43:05 51°13.599 2°56.093 16.6148 4.042305 31.37297 -2.871232
2007-03-14 08:43:10 51°13.598 2°56.093 16.5898 4.042305 31.37297 -2.871232
2007-03-14 08:43:15 51°13.598 2°56.093 16.5815 4.042201 31.372775 -2.871232
2007-03-14 08:43:20 51°13.598 2°56.094 16.5544 4.042201 31.372775 -2.871232
2007-03-14 08:43:25 51°13.598 2°56.094 16.5481 4.042201 31.372775 -2.871232
2007-03-14 08:43:30 51°13.598 2°56.094 16.5452 4.042201 31.373477 -2.871232
2007-03-14 08:43:35 51°13.598 2°56.094 16.5555 4.042097 31.37258 -2.871232
2007-03-14 08:43:40 51°13.598 2°56.094 16.5818 4.042097 31.37258 -2.871232
2007-03-14 08:43:45 51°13.598 2°56.094 16.589 4.042097 31.373282 -2.871232
2007-03-14 08:43:50 51°13.598 2°56.093 16.59 4.042097 31.373282 -2.871232
2007-03-14 08:43:55 51°13.598 2°56.093 16.5803 4.042097 31.373282 -2.871232
2007-03-14 08:44:00 51°13.598 2°56.093 16.5834 4.041994 31.372385 -2.871232
2007-03-14 08:44:05 51°13.598 2°56.093 16.5863 4.041994 31.373087 -2.871232
2007-03-14 08:44:10 51°13.598 2°56.093 16.5884 4.041994 31.373087 -2.871232
2007-03-14 08:44:15 51°13.598 2°56.093 16.591 4.04189 31.372892 -2.871232
2007-03-14 08:44:20 51°13.598 2°56.093 16.5948 4.04189 31.372892 -2.871232
2007-03-14 08:44:25 51°13.598 2°56.094 16.594 4.04189 31.372892 -2.871232
2007-03-14 08:44:30 51°13.598 2°56.094 16.5974 4.04189 31.372892 -2.871232
2007-03-14 08:44:35 51°13.598 2°56.094 16.5979 4.041786 31.372697 -2.871232
2007-03-14 08:44:40 51°13.598 2°56.094 16.5983 4.041786 31.372697 -2.871232
2007-03-14 08:44:45 51°13.598 2°56.094 16.601 4.041786 31.372697 -2.871232
2007-03-14 08:44:50 51°13.598 2°56.094 16.6061 4.041786 31.372697 -2.871232
2007-03-14 08:44:55 51°13.598 2°56.094 16.6097 4.041683 31.372502 -2.871232
2007-03-14 08:45:00 51°13.598 2°56.094 16.6166 4.041683 31.372502 -2.871232
2007-03-14 08:45:05 51°13.598 2°56.094 16.6163 4.041683 31.372502 -2.871232
2007-03-14 08:45:10 51°13.598 2°56.094 16.6131 4.041683 31.373205 -2.871232
2007-03-14 08:45:15 51°13.598 2°56.094 16.617 4.041579 31.372307 -2.871232
2007-03-14 08:45:20 51°13.598 2°56.094 16.6169 4.041579 31.37301 -2.871232
2007-03-14 08:45:25 51°13.598 2°56.094 16.6204 4.041579 31.37301 -2.871232
2007-03-14 08:45:30 51°13.598 2°56.094 16.6116 4.041579 31.37301 -2.871232
2007-03-14 08:45:35 51°13.598 2°56.094 16.6095 4.041579 31.37301 -2.871232
2007-03-14 08:45:40 51°13.598 2°56.094 16.6058 4.041475 31.372112 -2.871232
2007-03-14 08:45:45 51°13.598 2°56.094 16.604 4.041475 31.372815 -2.871232
2007-03-14 08:45:50 51°13.598 2°56.094 16.6069 4.041475 31.372815 -2.871232
2007-03-14 08:45:55 51°13.598 2°56.094 16.6088 4.041475 31.372815 -2.871232
2007-03-14 08:46:00 51°13.598 2°56.094 16.6107 4.041372 31.371918 -2.871232
2007-03-14 08:46:05 51°13.598 2°56.094 16.6141 4.041372 31.37262 -2.871232
2007-03-14 08:46:10 51°13.598 2°56.094 16.614 4.041372 31.37262 -2.871232
2007-03-14 08:46:15 51°13.598 2°56.094 16.6061 4.041372 31.37262 -2.871232
2007-03-14 08:46:20 51°13.598 2°56.094 16.6156 4.041372 31.373322 -2.871232
2007-03-14 08:46:25 51°13.598 2°56.094 16.6081 4.041372 31.373322 -2.871232
2007-03-14 08:46:30 51°13.598 2°56.094 16.6156 4.041268 31.372425 -2.871232
2007-03-14 08:46:35 51°13.598 2°56.094 16.6138 4.041268 31.372425 -2.871232
2007-03-14 08:46:40 51°13.598 2°56.094 16.623 4.041268 31.373127 -2.871232
2007-03-14 08:46:45 51°13.598 2°56.094 16.62 4.041164 31.37223 -2.871232
2007-03-14 08:46:50 51°13.598 2°56.094 16.6259 4.041164 31.37223 -2.871232
2007-03-14 08:46:55 51°13.598 2°56.094 16.6251 4.041164 31.37223 -2.871232
2007-03-14 08:47:00 51°13.598 2°56.094 16.6331 4.041164 31.372932 -2.871232
2007-03-14 08:47:05 51°13.598 2°56.094 16.6339 4.041061 31.372035 -2.871232
2007-03-14 08:47:10 51°13.598 2°56.094 16.6317 4.041061 31.372035 -2.871232
2007-03-14 08:47:15 51°13.598 2°56.094 16.6334 4.041061 31.372035 -2.871232
2007-03-14 08:47:20 51°13.598 2°56.094 16.6362 4.041061 31.372737 -2.871232
2007-03-14 08:47:25 51°13.598 2°56.094 16.644 4.041061 31.372737 -2.871232
2007-03-14 08:47:30 51°13.598 2°56.094 16.6494 4.040957 31.37184 -2.871232
2007-03-14 08:47:35 51°13.598 2°56.094 16.6508 4.040957 31.372542 -2.871232
2007-03-14 08:47:40 51°13.598 2°56.094 16.6577 4.040957 31.372542 -2.871232
2007-03-14 08:47:45 51°13.598 2°56.094 16.7002 4.040957 31.372542 -2.871232
2007-03-14 08:47:50 51°13.599 2°56.094 16.6647 4.040957 31.372542 -2.871232
2007-03-14 08:47:55 51°13.599 2°56.093 16.7348 4.040957 31.373245 -2.871232
2007-03-14 08:48:00 51°13.599 2°56.094 16.6943 4.040957 31.373245 -2.871232
2007-03-14 08:48:05 51°13.599 2°56.094 16.6237 4.040853 31.372347 -2.871232
2007-03-14 08:48:10 51°13.599 2°56.094 16.5919 4.040853 31.37305 -2.871232
2007-03-14 08:48:15 51°13.599 2°56.094 16.6439 4.040853 31.37305 -2.871232
2007-03-14 08:48:20 51°13.599 2°56.094 16.6199 4.040853 31.37305 -2.871232
2007-03-14 08:48:25 51°13.599 2°56.094 16.6609 4.04075 31.372152 -2.871232
2007-03-14 08:48:30 51°13.599 2°56.094 16.6405 4.04075 31.372152 -2.871232
2007-03-14 08:48:35 51°13.599 2°56.094 16.6511 4.04075 31.372855 -2.871232
2007-03-14 08:48:40 51°13.599 2°56.094 16.6543 4.04075 31.372855 -2.871232
2007-03-14 08:48:45 51°13.599 2°56.094 16.6302 4.040646 31.371957 -2.871232
2007-03-14 08:48:50 51°13.599 2°56.094 16.633 4.040646 31.371957 -2.871232
2007-03-14 08:48:55 51°13.599 2°56.094 16.6488 4.040646 31.371957 -2.871232
2007-03-14 08:49:00 51°13.599 2°56.094 16.6213 4.040646 31.37266 -2.871232
2007-03-14 08:49:05 51°13.599 2°56.094 16.6156 4.040646 31.37266 -2.871232
2007-03-14 08:49:10 51°13.599 2°56.094 16.6174 4.040646 31.373362 -2.871232
2007-03-14 08:49:15 51°13.599 2°56.094 16.6181 4.040542 31.372465 -2.871232
2007-03-14 08:49:20 51°13.599 2°56.094 16.6301 4.040542 31.372465 -2.871232
2007-03-14 08:49:25 51°13.599 2°56.093 16.6337 4.040542 31.372465 -2.871232
2007-03-14 08:49:30 51°13.598 2°56.093 16.6369 4.040542 31.372465 -2.871232
2007-03-14 08:49:35 51°13.598 2°56.093 16.6423 4.040542 31.373167 -2.871232
2007-03-14 08:49:40 51°13.598 2°56.093 16.6433 4.040542 31.373167 -2.871232
2007-03-14 08:49:45 51°13.598 2°56.093 16.6517 4.040439 31.37227 -2.871232
2007-03-14 08:49:50 51°13.598 2°56.093 16.6486 4.040439 31.372972 -2.871232
2007-03-14 08:49:55 51°13.598 2°56.093 16.6611 4.040439 31.372972 -2.871232